M I D A S
Marine Information and Data Acquisition System
Tripno 1182 of the Zeeleeuw from 2006-12-21 07:38:37 to 2006-12-21 14:01:52
Back to CruiseResearch ActivitiesStationsMapUnderway DataData graphs

EquipmentUnitsComment
TimeDGPSUTC
LatitudeDGPSDM.mWGS84
LongitudeDGPSDM.mWGS84
TemperatureSBE03/SBE38deg celciusITS90
ConductivitySBE21S/mITS90
SalinitySBE21 Practical Salinity Units
ChlorophylAChelsea fluorimeterg/lCalibrated in Aceton
Missing or incorrect values are displayed as -999
Sea surface data collected by the RV Zeeleeuw from 2006-12-21 07:37:35 to 2006-12-21 14:10:29
                                                                                    Next 1000 lines
Time Latitude Longitude Temperature Conductivity Salinity ChlorophylA
2006-12-21 07:37:45 51°13.599 2°56.093 13.2454 0.063444 0.379677 -2.871232
2006-12-21 07:37:50 51°13.599 2°56.091 13.2338 0.063444 0.379677 -2.871232
2006-12-21 07:37:55 51°13.6 2°56.09 13.2797 0.063444 0.379677 -2.871232
2006-12-21 07:37:59 51°13.6 2°56.088 13.2573 0.063444 0.379677 -2.871232
2006-12-21 07:38:03 51°13.601 2°56.086 13.2704 0.063444 0.379677 -2.871232
2006-12-21 07:38:10 51°13.602 2°56.081 13.2845 0.063444 0.379677 -2.871232
2006-12-21 07:38:14 51°13.603 2°56.078 13.305 0.063444 0.379677 -2.871232
2006-12-21 07:38:21 51°13.605 2°56.071 13.2935 0.063444 0.379685 -2.871232
2006-12-21 07:38:26 51°13.606 2°56.065 13.3379 0.063444 0.379685 -2.871232
2006-12-21 07:38:32 51°13.607 2°56.057 13.3176 0.063444 0.379685 -2.871232
2006-12-21 07:38:37 51°13.609 2°56.051 13.3267 0.063444 0.379685 -2.871232
2006-12-21 07:38:43 51°13.611 2°56.042 13.3212 0.063444 0.379685 -2.871232
2006-12-21 07:38:48 51°13.612 2°56.035 13.3266 0.063444 0.379685 -2.871232
2006-12-21 07:38:53 51°13.614 2°56.027 13.3161 0.063444 0.379685 -2.871232
2006-12-21 07:38:58 51°13.616 2°56.019 13.3342 0.063444 0.379685 -2.871232
2006-12-21 07:39:03 51°13.618 2°56.01 13.3425 0.063444 0.379685 -2.871232
2006-12-21 07:39:07 51°13.62 2°56.003 13.3434 0.063444 0.379685 -2.871232
2006-12-21 07:39:13 51°13.622 2°55.993 13.3398 0.063444 0.379685 -2.871232
2006-12-21 07:39:18 51°13.624 2°55.983 13.3433 0.063444 0.379685 -2.871232
2006-12-21 07:39:23 51°13.627 2°55.974 13.3607 0.063444 0.379685 -2.871232
2006-12-21 07:39:27 51°13.629 2°55.967 13.3737 0.063444 0.379685 -2.871232
2006-12-21 07:39:33 51°13.632 2°55.955 13.373 0.063444 0.379685 -2.871232
2006-12-21 07:39:38 51°13.634 2°55.946 13.3523 0.063444 0.379685 -2.871232
2006-12-21 07:39:43 51°13.637 2°55.936 13.343 0.063444 0.379693 -2.871232
2006-12-21 07:39:47 51°13.64 2°55.928 13.3318 0.063444 0.379693 -2.871232
2006-12-21 07:39:53 51°13.644 2°55.916 13.3392 0.063444 0.379693 -2.871232
2006-12-21 07:39:58 51°13.648 2°55.905 13.3413 0.063444 0.379693 -2.871232
2006-12-21 07:40:03 51°13.652 2°55.895 13.3466 0.063444 0.379693 -2.871232
2006-12-21 07:40:07 51°13.655 2°55.886 13.3488 0.063444 0.379693 -2.871232
2006-12-21 07:40:13 51°13.66 2°55.873 13.3493 0.063444 0.379693 -2.871232
2006-12-21 07:40:18 51°13.664 2°55.862 13.3541 0.063444 0.379702 -2.871232
2006-12-21 07:40:23 51°13.668 2°55.851 13.3969 0.063444 0.379702 -2.871232
2006-12-21 07:40:27 51°13.672 2°55.843 13.4084 0.063444 0.379702 -2.871232
2006-12-21 07:40:33 51°13.677 2°55.831 13.4092 0.063444 0.379702 -2.871232
2006-12-21 07:40:38 51°13.681 2°55.821 13.4082 0.063444 0.379702 -2.871232
2006-12-21 07:40:43 51°13.686 2°55.811 13.4077 0.063444 0.379702 -2.871232
2006-12-21 07:40:47 51°13.689 2°55.804 13.4284 0.063444 0.379702 -2.871232
2006-12-21 07:40:53 51°13.694 2°55.792 13.4286 0.063444 0.379702 -2.871232
2006-12-21 07:40:58 51°13.698 2°55.783 13.4199 0.063444 0.379702 -2.871232
2006-12-21 07:41:03 51°13.702 2°55.774 13.4074 0.063444 0.379702 -2.871232
2006-12-21 07:41:07 51°13.705 2°55.767 13.3998 0.063444 0.37971 -2.871232
2006-12-21 07:41:13 51°13.709 2°55.758 13.3983 0.063444 0.379702 -2.871232
2006-12-21 07:41:18 51°13.713 2°55.75 13.4016 0.063444 0.37971 -2.871232
2006-12-21 07:41:22 51°13.715 2°55.743 13.3796 0.063444 0.37971 -2.871232
2006-12-21 07:41:27 51°13.719 2°55.736 13.3826 0.063444 0.37971 -2.871232
2006-12-21 07:41:33 51°13.722 2°55.728 13.3729 0.063444 0.37971 -2.871232
2006-12-21 07:41:38 51°13.725 2°55.722 13.3838 0.063444 0.37971 -2.871232
2006-12-21 07:41:42 51°13.726 2°55.717 13.3906 0.063444 0.37971 -2.871232
2006-12-21 07:41:46 51°13.728 2°55.713 13.3917 0.063444 0.37971 -2.871232
2006-12-21 07:41:51 51°13.729 2°55.709 13.4059 0.063444 0.37971 -2.871232
2006-12-21 07:41:57 51°13.731 2°55.706 13.4184 0.063444 0.37971 -2.871232
2006-12-21 07:42:02 51°13.731 2°55.704 13.4349 0.063444 0.37971 -2.871232
2006-12-21 07:42:06 51°13.732 2°55.703 13.4512 0.063444 0.37971 -2.871232
2006-12-21 07:42:11 51°13.733 2°55.703 13.4551 0.063444 0.379719 -2.871232
2006-12-21 07:42:17 51°13.733 2°55.705 13.4657 0.063444 0.379719 -2.871232
2006-12-21 07:42:22 51°13.734 2°55.707 13.4883 0.063444 0.379719 -2.871232
2006-12-21 07:42:26 51°13.734 2°55.71 13.4528 0.063444 0.379719 -2.871232
2006-12-21 07:42:30 51°13.735 2°55.713 13.4306 0.063444 0.379719 -2.871232
2006-12-21 07:42:35 51°13.736 2°55.716 13.3867 0.063444 0.379727 -2.871232
2006-12-21 07:42:41 51°13.737 2°55.719 13.3498 0.063444 0.379735 -2.871232
2006-12-21 07:42:46 51°13.738 2°55.72 13.3129 0.063444 0.379735 -2.871232
2006-12-21 07:42:51 51°13.739 2°55.72 13.3549 0.063444 0.379744 -2.871232
2006-12-21 07:42:55 51°13.74 2°55.719 13.3045 0.063444 0.379744 -2.871232
2006-12-21 07:43:02 51°13.74 2°55.718 13.3367 0.063444 0.379744 -2.871232
2006-12-21 07:43:05 51°13.74 2°55.716 13.3907 0.063444 0.379744 -2.871232
2006-12-21 07:43:10 51°13.74 2°55.714 13.3853 0.063444 0.379744 -2.871232
2006-12-21 07:43:15 51°13.739 2°55.711 13.4171 0.063444 0.379744 -2.871232
2006-12-21 07:43:21 51°13.738 2°55.707 13.4531 0.063444 0.379744 -2.871232
2006-12-21 07:43:26 51°13.737 2°55.705 13.4489 0.063444 0.379744 -2.871232
2006-12-21 07:43:31 51°13.736 2°55.702 13.44 0.063444 0.379735 -2.871232
2006-12-21 07:43:37 51°13.736 2°55.7 13.4391 0.063444 0.379735 -2.871232
2006-12-21 07:43:42 51°13.736 2°55.699 13.4734 0.063444 0.379735 -2.871232
2006-12-21 07:43:47 51°13.737 2°55.698 13.4822 0.063444 0.379727 -2.871232
2006-12-21 07:43:52 51°13.739 2°55.698 13.5002 0.063444 0.379727 -2.871232
2006-12-21 07:43:58 51°13.742 2°55.699 13.5133 0.063444 0.379727 -2.871232
2006-12-21 07:44:02 51°13.744 2°55.698 13.5124 0.063444 0.379727 -2.871232
2006-12-21 07:44:06 51°13.746 2°55.698 13.5202 0.063444 0.379727 -2.871232
2006-12-21 07:44:11 51°13.75 2°55.697 13.5154 0.063444 0.379735 -2.871232
2006-12-21 07:44:16 51°13.755 2°55.695 13.5211 0.063444 0.379735 -2.871232
2006-12-21 07:44:21 51°13.761 2°55.692 13.5065 0.063444 0.379744 -2.871232
2006-12-21 07:44:26 51°13.767 2°55.688 13.4917 0.063444 0.379744 -2.871232
2006-12-21 07:44:31 51°13.774 2°55.683 13.4225 0.063444 0.379744 -2.871232
2006-12-21 07:44:36 51°13.781 2°55.678 13.4284 0.063444 0.379744 -2.871232
2006-12-21 07:44:42 51°13.791 2°55.671 13.4058 0.063444 0.379752 -2.871232
2006-12-21 07:44:47 51°13.799 2°55.665 13.369 0.063444 0.379752 -2.871232
2006-12-21 07:44:51 51°13.806 2°55.659 13.3623 0.063444 0.379752 -2.871232
2006-12-21 07:44:55 51°13.813 2°55.654 13.3509 0.063444 0.379752 -2.871232
2006-12-21 07:45:01 51°13.824 2°55.646 13.339 0.063444 0.379744 -2.871232
2006-12-21 07:45:06 51°13.833 2°55.639 13.3256 0.063444 0.379744 -2.871232
2006-12-21 07:45:11 51°13.843 2°55.632 13.3015 0.063444 0.379744 -2.871232
2006-12-21 07:45:17 51°13.855 2°55.623 13.2964 0.063444 0.379744 -2.871232
2006-12-21 07:45:22 51°13.865 2°55.615 13.2938 0.063444 0.379744 -2.871232
2006-12-21 07:45:26 51°13.873 2°55.608 13.2945 0.063444 0.379744 -2.871232
2006-12-21 07:45:31 51°13.884 2°55.601 13.2932 0.063444 0.379752 -2.871232
2006-12-21 07:45:35 51°13.892 2°55.594 13.2858 0.063444 0.379752 -2.871232
2006-12-21 07:45:41 51°13.905 2°55.584 13.2905 0.063444 0.379752 -2.871232
2006-12-21 07:45:46 51°13.916 2°55.575 13.2398 0.063444 0.379752 -2.871232
2006-12-21 07:45:52 51°13.929 2°55.566 13.2203 0.063444 0.379752 -2.871232
2006-12-21 07:45:57 51°13.94 2°55.557 13.2181 0.063444 0.379752 -2.871232
2006-12-21 07:46:02 51°13.951 2°55.55 13.2395 0.063444 0.379752 -2.871232
2006-12-21 07:46:07 51°13.962 2°55.542 13.2389 0.063444 0.379752 -2.871232
2006-12-21 07:46:13 51°13.975 2°55.532 13.2493 0.063444 0.379752 -2.871232
2006-12-21 07:46:17 51°13.984 2°55.526 13.2559 0.063444 0.379752 -2.871232
2006-12-21 07:46:22 51°13.995 2°55.518 13.2688 0.063444 0.379752 -2.871232
2006-12-21 07:46:27 51°14.007 2°55.51 13.2706 0.063444 0.379752 -2.871232
2006-12-21 07:46:32 51°14.018 2°55.502 13.2804 0.063444 0.379752 -2.871232
2006-12-21 07:46:37 51°14.029 2°55.495 13.2915 0.063444 0.379752 -2.871232
2006-12-21 07:46:42 51°14.039 2°55.487 13.2925 0.063444 0.379752 -2.871232
2006-12-21 07:46:47 51°14.05 2°55.479 13.3002 0.063444 0.379752 -2.871232
2006-12-21 07:46:52 51°14.06 2°55.471 13.3047 0.063444 0.37976 -2.871232
2006-12-21 07:46:57 51°14.07 2°55.464 13.3123 0.063444 0.37976 -2.871232
2006-12-21 07:47:02 51°14.081 2°55.455 13.3432 0.063444 0.37976 -2.871232
2006-12-21 07:47:07 51°14.091 2°55.447 13.3354 0.063444 0.37976 -2.871232
2006-12-21 07:47:13 51°14.105 2°55.437 13.3313 0.063444 0.37976 -2.871232
2006-12-21 07:47:17 51°14.113 2°55.43 13.3318 0.063444 0.37976 -2.871232
2006-12-21 07:47:22 51°14.125 2°55.422 13.3382 0.063444 0.379769 -2.871232
2006-12-21 07:47:27 51°14.136 2°55.413 13.3431 0.063444 0.379769 -2.871232
2006-12-21 07:47:32 51°14.147 2°55.404 13.3709 0.063444 0.379769 -2.871232
2006-12-21 07:47:38 51°14.161 2°55.392 13.386 0.063444 0.379777 -2.871232
2006-12-21 07:47:42 51°14.17 2°55.383 13.4279 0.063444 0.379777 -2.871232
2006-12-21 07:47:47 51°14.181 2°55.372 13.3753 0.063444 0.379785 -2.871232
2006-12-21 07:47:53 51°14.194 2°55.359 13.3687 0.063444 0.379777 -2.871232
2006-12-21 07:47:58 51°14.205 2°55.347 13.3575 0.063444 0.379777 -2.871232
2006-12-21 07:48:02 51°14.214 2°55.337 13.3659 0.063444 0.379785 -2.871232
2006-12-21 07:48:07 51°14.224 2°55.325 13.3786 0.063444 0.379785 -2.871232
2006-12-21 07:48:13 51°14.237 2°55.309 13.4289 0.063444 0.379785 -2.871232
2006-12-21 07:48:18 51°14.248 2°55.295 13.4818 0.063444 0.379785 -2.871232
2006-12-21 07:48:23 51°14.258 2°55.281 13.4537 0.063444 0.379785 -2.871232
2006-12-21 07:48:27 51°14.265 2°55.269 13.4566 0.063444 0.379785 -2.871232
2006-12-21 07:48:32 51°14.275 2°55.254 13.4561 0.063444 0.379785 -2.871232
2006-12-21 07:48:37 51°14.284 2°55.238 13.4256 0.063444 0.379785 -2.871232
2006-12-21 07:48:43 51°14.294 2°55.218 13.4183 0.063444 0.379785 -2.871232
2006-12-21 07:48:47 51°14.301 2°55.205 13.387 0.063444 0.379785 -2.871232
2006-12-21 07:48:53 51°14.311 2°55.184 13.3574 0.063444 0.379785 -2.871232
2006-12-21 07:48:58 51°14.32 2°55.167 13.3387 0.063444 0.379785 -2.871232
2006-12-21 07:49:03 51°14.328 2°55.15 13.328 0.063444 0.379785 -2.871232
2006-12-21 07:49:07 51°14.336 2°55.136 13.3292 0.063444 0.379777 -2.871232
2006-12-21 07:49:11 51°14.343 2°55.121 13.2858 0.063444 0.379777 -2.871232
2006-12-21 07:49:17 51°14.355 2°55.099 13.4273 0.063444 0.379785 -2.871232
2006-12-21 07:49:22 51°14.365 2°55.08 13.373 0.063444 0.379785 -2.871232
2006-12-21 07:49:27 51°14.375 2°55.06 13.3696 0.063444 0.379785 -2.871232
2006-12-21 07:49:31 51°14.383 2°55.044 13.397 0.063444 0.379785 -2.871232
2006-12-21 07:49:35 51°14.391 2°55.028 13.4205 0.063444 0.379785 -2.871232
2006-12-21 07:49:40 51°14.4 2°55.007 13.4493 0.063444 0.379794 -2.871232
2006-12-21 07:49:45 51°14.41 2°54.984 13.3952 0.063444 0.379794 -2.871232
2006-12-21 07:49:50 51°14.419 2°54.961 13.3514 0.063444 0.379802 -2.871232
2006-12-21 07:49:54 51°14.426 2°54.942 13.3925 0.063444 0.379802 -2.871232
2006-12-21 07:49:59 51°14.434 2°54.918 13.2971 0.063444 0.379794 -2.871232
2006-12-21 07:50:03 51°14.441 2°54.898 13.3111 0.063444 0.379794 -2.871232
2006-12-21 07:50:09 51°14.451 2°54.869 13.166 0.063444 0.379802 -2.871232
2006-12-21 07:50:13 51°14.458 2°54.849 13.256 0.063444 0.379794 -2.871232
2006-12-21 07:50:19 51°14.47 2°54.821 13.1135 0.063444 0.379794 -2.871232
2006-12-21 07:50:23 51°14.479 2°54.803 13.2115 0.063444 0.379794 -2.871232
2006-12-21 07:50:30 51°14.496 2°54.774 13.2415 0.063444 0.379794 -2.871232
2006-12-21 07:50:35 51°14.509 2°54.756 13.2437 0.063444 0.379794 -2.871232
2006-12-21 07:50:39 51°14.52 2°54.741 13.287 0.063444 0.379794 -2.871232
2006-12-21 07:50:45 51°14.537 2°54.721 13.3261 0.063444 0.379802 -2.871232
2006-12-21 07:50:50 51°14.551 2°54.704 13.3546 0.063444 0.379802 -2.871232
2006-12-21 07:50:55 51°14.566 2°54.687 13.2942 0.063444 0.379802 -2.871232
2006-12-21 07:50:59 51°14.577 2°54.674 13.365 0.063444 0.379802 -2.871232
2006-12-21 07:51:05 51°14.595 2°54.656 13.3489 0.063444 0.379802 -2.871232
2006-12-21 07:51:09 51°14.607 2°54.643 13.4062 0.063444 0.379811 -2.871232
2006-12-21 07:51:13 51°14.619 2°54.63 13.3698 0.063444 0.379811 -2.871232
2006-12-21 07:51:18 51°14.633 2°54.614 13.3655 0.063444 0.379811 -2.871232
2006-12-21 07:51:24 51°14.651 2°54.594 13.3318 0.063444 0.379811 -2.871232
2006-12-21 07:51:29 51°14.666 2°54.578 13.3564 0.063444 0.379811 -2.871232
2006-12-21 07:51:35 51°14.684 2°54.558 13.348 0.063444 0.379811 -2.871232
2006-12-21 07:51:38 51°14.693 2°54.548 13.3374 0.063444 0.379811 -2.871232
2006-12-21 07:51:43 51°14.708 2°54.531 13.3312 0.063444 0.379811 -2.871232
2006-12-21 07:51:49 51°14.726 2°54.511 13.3437 0.063444 0.379811 -2.871232
2006-12-21 07:51:54 51°14.741 2°54.493 13.2539 0.063444 0.379811 -2.871232
2006-12-21 07:51:59 51°14.756 2°54.477 13.2859 0.063444 0.379819 -2.871232
2006-12-21 07:52:03 51°14.768 2°54.463 13.2477 0.063444 0.379819 -2.871232
2006-12-21 07:52:10 51°14.789 2°54.439 13.2685 0.063444 0.379819 -2.871232
2006-12-21 07:52:15 51°14.804 2°54.422 13.2519 0.063444 0.379819 -2.871232
2006-12-21 07:52:19 51°14.817 2°54.409 13.2525 0.063444 0.379819 -2.871232
2006-12-21 07:52:23 51°14.829 2°54.396 13.2194 0.063444 0.379819 -2.871232
2006-12-21 07:52:29 51°14.847 2°54.377 13.2109 0.063444 0.379819 -2.871232
2006-12-21 07:52:34 51°14.863 2°54.361 13.2719 0.063444 0.379819 -2.871232
2006-12-21 07:52:39 51°14.879 2°54.347 13.2239 0.063444 0.379819 -2.871232
2006-12-21 07:52:44 51°14.895 2°54.332 13.239 0.063444 0.379819 -2.871232
2006-12-21 07:52:49 51°14.911 2°54.319 13.2555 0.063444 0.379827 -2.871232
2006-12-21 07:52:54 51°14.927 2°54.305 13.2808 0.063444 0.379827 -2.871232
2006-12-21 07:52:59 51°14.943 2°54.293 13.2514 0.063444 0.379827 -2.871232
2006-12-21 07:53:04 51°14.959 2°54.28 13.3376 0.063444 0.379827 -2.871232
2006-12-21 07:53:09 51°14.975 2°54.268 13.3728 0.063444 0.379836 -2.871232
2006-12-21 07:53:14 51°14.991 2°54.254 13.3904 0.063444 0.379844 -2.871232
2006-12-21 07:53:19 51°15.006 2°54.24 13.3731 0.063444 0.379852 -2.871232
2006-12-21 07:53:24 51°15.021 2°54.224 13.3778 0.063444 0.379852 -2.871232
2006-12-21 07:53:29 51°15.035 2°54.207 13.2988 0.063444 0.379852 -2.871232
2006-12-21 07:53:33 51°15.046 2°54.194 13.2693 0.063444 0.379852 -2.871232
2006-12-21 07:53:39 51°15.063 2°54.173 13.3203 0.063444 0.379844 -2.871232
2006-12-21 07:53:44 51°15.078 2°54.156 13.2872 0.063444 0.379844 -2.871232
2006-12-21 07:53:49 51°15.092 2°54.139 13.3149 0.063444 0.379844 -2.871232
2006-12-21 07:53:54 51°15.107 2°54.122 13.2112 0.063444 0.379844 -2.871232
2006-12-21 07:53:59 51°15.121 2°54.105 13.2532 0.063444 0.379844 -2.871232
2006-12-21 07:54:03 51°15.133 2°54.092 13.2689 0.063444 0.379836 -2.871232
2006-12-21 07:54:09 51°15.152 2°54.073 13.2389 0.063444 0.379844 -2.871232
2006-12-21 07:54:14 51°15.167 2°54.058 13.3056 0.063444 0.379844 -2.871232
2006-12-21 07:54:19 51°15.183 2°54.043 13.2803 0.063444 0.379844 -2.871232
2006-12-21 07:54:23 51°15.195 2°54.031 13.2841 0.063444 0.379844 -2.871232
2006-12-21 07:54:29 51°15.213 2°54.013 13.331 0.063444 0.379844 -2.871232
2006-12-21 07:54:34 51°15.229 2°53.997 13.3447 0.063444 0.379852 -2.871232
2006-12-21 07:54:39 51°15.244 2°53.981 13.3397 0.063444 0.379852 -2.871232
2006-12-21 07:54:44 51°15.259 2°53.965 13.3337 0.063444 0.379861 -2.871232
2006-12-21 07:54:49 51°15.275 2°53.948 13.3409 0.063444 0.379861 -2.871232
2006-12-21 07:54:53 51°15.287 2°53.935 13.3109 0.063444 0.379861 -2.871232
2006-12-21 07:54:59 51°15.305 2°53.914 13.3052 0.063444 0.379861 -2.871232
2006-12-21 07:55:03 51°15.317 2°53.901 13.2864 0.063444 0.379861 -2.871232
2006-12-21 07:55:09 51°15.336 2°53.881 13.221 0.063444 0.379861 -2.871232
2006-12-21 07:55:14 51°15.351 2°53.865 13.3233 0.063444 0.379869 -2.871232
2006-12-21 07:55:19 51°15.367 2°53.85 13.2964 0.063444 0.379861 -2.871232
2006-12-21 07:55:24 51°15.384 2°53.835 13.3084 0.063444 0.379861 -2.871232
2006-12-21 07:55:29 51°15.4 2°53.821 13.3214 0.063444 0.379869 -2.871232
2006-12-21 07:55:34 51°15.417 2°53.807 13.3477 0.063444 0.379869 -2.871232
2006-12-21 07:55:39 51°15.433 2°53.794 13.351 0.063444 0.379869 -2.871232
2006-12-21 07:55:43 51°15.446 2°53.783 13.3628 0.063444 0.379877 -2.871232
2006-12-21 07:55:49 51°15.466 2°53.766 13.3838 0.063444 0.379877 -2.871232
2006-12-21 07:55:53 51°15.479 2°53.754 13.3693 0.063444 0.379877 -2.871232
2006-12-21 07:55:58 51°15.496 2°53.739 13.351 0.063444 0.379877 -2.871232
2006-12-21 07:56:04 51°15.515 2°53.721 13.3618 0.063444 0.379877 -2.871232
2006-12-21 07:56:09 51°15.531 2°53.705 13.3301 0.063444 0.379877 -2.871232
2006-12-21 07:56:13 51°15.544 2°53.692 13.3189 0.063444 0.379877 -2.871232
2006-12-21 07:56:18 51°15.56 2°53.675 13.3395 0.063444 0.379869 -2.871232
2006-12-21 07:56:23 51°15.576 2°53.659 13.37 0.063444 0.379869 -2.871232
2006-12-21 07:56:29 51°15.595 2°53.64 13.3238 0.063444 0.379869 -2.871232
2006-12-21 07:56:34 51°15.611 2°53.624 13.2906 0.063444 0.379869 -2.871232
2006-12-21 07:56:38 51°15.624 2°53.611 13.3559 0.063444 0.379877 -2.871232
2006-12-21 07:56:43 51°15.641 2°53.596 13.3502 0.063444 0.379877 -2.871232
2006-12-21 07:56:49 51°15.66 2°53.578 13.3553 0.063444 0.379886 -2.871232
2006-12-21 07:56:54 51°15.677 2°53.563 13.3448 0.063444 0.379886 -2.871232
2006-12-21 07:56:59 51°15.693 2°53.548 13.385 0.063444 0.379886 -2.871232
2006-12-21 07:57:04 51°15.71 2°53.533 13.3965 0.063444 0.379886 -2.871232
2006-12-21 07:57:09 51°15.727 2°53.518 13.3788 0.063444 0.379894 -2.871232
2006-12-21 07:57:14 51°15.743 2°53.503 13.3945 0.063444 0.379894 -2.871232
2006-12-21 07:57:19 51°15.76 2°53.487 13.3794 0.063444 0.379894 -2.871232
2006-12-21 07:57:24 51°15.776 2°53.471 13.3751 0.063444 0.379894 -2.871232
2006-12-21 07:57:29 51°15.792 2°53.455 13.3951 0.063444 0.379903 -2.871232
2006-12-21 07:57:33 51°15.805 2°53.442 13.3773 0.063444 0.379894 -2.871232
2006-12-21 07:57:39 51°15.825 2°53.423 13.3528 0.063444 0.379903 -2.871232
2006-12-21 07:57:44 51°15.841 2°53.407 13.3854 0.063444 0.379903 -2.871232
2006-12-21 07:57:49 51°15.858 2°53.391 13.3704 0.063444 0.379903 -2.871232
2006-12-21 07:57:54 51°15.874 2°53.375 13.3847 0.063444 0.379903 -2.871232
2006-12-21 07:57:59 51°15.89 2°53.359 13.4045 0.063444 0.379903 -2.871232
2006-12-21 07:58:04 51°15.907 2°53.343 13.3665 0.063444 0.379903 -2.871232
2006-12-21 07:58:09 51°15.923 2°53.326 13.3882 0.063444 0.379903 -2.871232
2006-12-21 07:58:14 51°15.939 2°53.31 13.3272 0.063444 0.379903 -2.871232
2006-12-21 07:58:18 51°15.952 2°53.297 13.4042 0.063444 0.379903 -2.871232
2006-12-21 07:58:24 51°15.972 2°53.278 13.3918 0.063444 0.379903 -2.871232
2006-12-21 07:58:29 51°15.988 2°53.262 13.396 0.063444 0.379903 -2.871232
2006-12-21 07:58:34 51°16.004 2°53.246 13.409 0.063444 0.379911 -2.871232
2006-12-21 07:58:39 51°16.02 2°53.23 13.3734 0.063444 0.379911 -2.871232
2006-12-21 07:58:44 51°16.037 2°53.214 13.4146 0.063444 0.379911 -2.871232
2006-12-21 07:58:49 51°16.053 2°53.198 13.3852 0.063444 0.379919 -2.871232
2006-12-21 07:58:54 51°16.069 2°53.181 13.3448 0.063444 0.379919 -2.871232
2006-12-21 07:58:59 51°16.085 2°53.165 13.3795 0.063444 0.379911 -2.871232
2006-12-21 07:59:04 51°16.101 2°53.15 13.3755 0.063444 0.379911 -2.871232
2006-12-21 07:59:08 51°16.115 2°53.137 13.3517 0.063444 0.379911 -2.871232
2006-12-21 07:59:14 51°16.134 2°53.119 13.3879 0.063444 0.379919 -2.871232
2006-12-21 07:59:19 51°16.151 2°53.104 13.4224 0.063444 0.379919 -2.871232
2006-12-21 07:59:24 51°16.167 2°53.089 13.3984 0.063444 0.379919 -2.871232
2006-12-21 07:59:29 51°16.183 2°53.073 13.399 0.063444 0.379919 -2.871232
2006-12-21 07:59:34 51°16.2 2°53.058 13.3784 0.063341 0.37929 -2.871232
2006-12-21 07:59:39 51°16.216 2°53.042 13.3499 0.063444 0.379928 -2.871232
2006-12-21 07:59:44 51°16.232 2°53.026 13.3386 0.063444 0.379928 -2.871232
2006-12-21 07:59:49 51°16.248 2°53.01 13.3459 0.063444 0.379928 -2.871232
2006-12-21 07:59:54 51°16.265 2°52.995 13.3711 0.063444 0.379928 -2.871232
2006-12-21 07:59:59 51°16.281 2°52.981 13.4225 0.063444 0.379919 -2.871232
2006-12-21 08:00:04 51°16.298 2°52.967 13.3914 0.063444 0.379928 -2.871232
2006-12-21 08:00:09 51°16.315 2°52.953 13.3842 0.063444 0.379928 -2.871232
2006-12-21 08:00:14 51°16.332 2°52.94 13.4102 0.063444 0.379936 -2.871232
2006-12-21 08:00:19 51°16.348 2°52.926 13.3985 0.063444 0.379936 -2.871232
2006-12-21 08:00:24 51°16.365 2°52.911 13.3771 0.063444 0.379936 -2.871232
2006-12-21 08:00:29 51°16.382 2°52.897 13.3874 0.063444 0.379936 -2.871232
2006-12-21 08:00:34 51°16.398 2°52.883 13.3884 0.063444 0.379936 -2.871232
2006-12-21 08:00:38 51°16.412 2°52.872 13.3289 0.063444 0.379936 -2.871232
2006-12-21 08:00:42 51°16.425 2°52.861 13.3874 0.063444 0.379936 -2.871232
2006-12-21 08:00:49 51°16.448 2°52.841 13.3918 0.063444 0.379936 -2.871232
2006-12-21 08:00:54 51°16.465 2°52.827 13.3913 0.063444 0.379936 -2.871232
2006-12-21 08:00:59 51°16.482 2°52.814 13.3789 0.063444 0.379936 -2.871232
2006-12-21 08:01:04 51°16.499 2°52.8 13.4127 0.063444 0.379936 -2.871232
2006-12-21 08:01:09 51°16.515 2°52.787 13.405 0.063444 0.379944 -2.871232
2006-12-21 08:01:14 51°16.532 2°52.773 13.4204 0.063444 0.379944 -2.871232
2006-12-21 08:01:19 51°16.548 2°52.759 13.3707 0.063444 0.379944 -2.871232
2006-12-21 08:01:24 51°16.565 2°52.745 13.3716 0.063444 0.379944 -2.871232
2006-12-21 08:01:29 51°16.582 2°52.731 13.3344 0.063444 0.379944 -2.871232
2006-12-21 08:01:34 51°16.598 2°52.718 13.3947 0.063444 0.379944 -2.871232
2006-12-21 08:01:39 51°16.615 2°52.705 13.3779 0.063444 0.379944 -2.871232
2006-12-21 08:01:44 51°16.632 2°52.692 13.386 0.063444 0.379944 -2.871232
2006-12-21 08:01:49 51°16.649 2°52.68 13.3918 0.063444 0.379953 -2.871232
2006-12-21 08:01:54 51°16.666 2°52.669 13.3991 0.063444 0.379953 -2.871232
2006-12-21 08:01:59 51°16.683 2°52.658 13.3809 0.063444 0.379944 -2.871232
2006-12-21 08:02:04 51°16.7 2°52.648 13.3806 0.063444 0.379953 -2.871232
2006-12-21 08:02:09 51°16.717 2°52.637 13.4075 0.063444 0.379953 -2.871232
2006-12-21 08:02:14 51°16.734 2°52.628 13.4263 0.063444 0.379953 -2.871232
2006-12-21 08:02:19 51°16.751 2°52.618 13.4035 0.063444 0.379953 -2.871232
2006-12-21 08:02:24 51°16.768 2°52.608 13.4175 0.063444 0.379953 -2.871232
2006-12-21 08:02:29 51°16.785 2°52.598 13.3601 0.063444 0.379961 -2.871232
2006-12-21 08:02:34 51°16.801 2°52.589 13.3748 0.063444 0.379961 -2.871232
2006-12-21 08:02:38 51°16.815 2°52.582 13.3821 0.063444 0.379961 -2.871232
2006-12-21 08:02:44 51°16.835 2°52.571 13.3302 0.063444 0.379961 -2.871232
2006-12-21 08:02:49 51°16.852 2°52.562 13.2782 0.063444 0.379961 -2.871232
2006-12-21 08:02:54 51°16.869 2°52.554 13.3263 0.063444 0.379961 -2.871232
2006-12-21 08:02:58 51°16.883 2°52.548 13.2555 0.063444 0.379961 -2.871232
2006-12-21 08:03:04 51°16.904 2°52.541 13.3349 0.063444 0.379961 -2.871232
2006-12-21 08:03:09 51°16.921 2°52.535 13.3604 0.063444 0.379961 -2.871232
2006-12-21 08:03:14 51°16.939 2°52.531 13.3729 0.063444 0.37997 -2.871232
2006-12-21 08:03:19 51°16.957 2°52.526 13.3447 0.063444 0.37997 -2.871232
2006-12-21 08:03:24 51°16.974 2°52.522 13.363 0.063444 0.37997 -2.871232
2006-12-21 08:03:29 51°16.992 2°52.518 13.3831 0.063444 0.37997 -2.871232
2006-12-21 08:03:34 51°17.009 2°52.514 13.4166 0.063444 0.37997 -2.871232
2006-12-21 08:03:39 51°17.026 2°52.51 13.4029 0.063444 0.37997 -2.871232
2006-12-21 08:03:44 51°17.044 2°52.506 13.3446 0.063444 0.379978 -2.871232
2006-12-21 08:03:49 51°17.061 2°52.502 13.3712 0.063444 0.37997 -2.871232
2006-12-21 08:03:54 51°17.079 2°52.499 13.3548 0.063444 0.37997 -2.871232
2006-12-21 08:03:59 51°17.096 2°52.495 13.3732 0.063444 0.37997 -2.871232
2006-12-21 08:04:04 51°17.114 2°52.492 13.3779 0.063444 0.379978 -2.871232
2006-12-21 08:04:09 51°17.131 2°52.488 13.4082 0.063444 0.379978 -2.871232
2006-12-21 08:04:13 51°17.145 2°52.486 13.373 0.063444 0.379978 -2.871232
2006-12-21 08:04:19 51°17.166 2°52.482 13.3662 0.063444 0.379978 -2.871232
2006-12-21 08:04:24 51°17.184 2°52.479 13.3983 0.063444 0.379978 -2.871232
2006-12-21 08:04:29 51°17.202 2°52.476 13.3988 0.063444 0.379978 -2.871232
2006-12-21 08:04:34 51°17.219 2°52.473 13.3711 0.063444 0.379978 -2.871232
2006-12-21 08:04:39 51°17.237 2°52.471 13.4133 0.063444 0.379986 -2.871232
2006-12-21 08:04:44 51°17.255 2°52.469 13.3532 0.063444 0.379986 -2.871232
2006-12-21 08:04:49 51°17.273 2°52.467 13.4184 0.063341 0.379349 -2.871232
2006-12-21 08:04:54 51°17.291 2°52.465 13.4254 0.063341 0.379349 -2.871232
2006-12-21 08:04:59 51°17.308 2°52.464 13.4274 0.063444 0.379986 -2.871232
2006-12-21 08:05:04 51°17.326 2°52.463 13.4555 0.063444 0.379986 -2.871232
2006-12-21 08:05:09 51°17.344 2°52.461 13.3846 0.063444 0.379995 -2.871232
2006-12-21 08:05:14 51°17.362 2°52.459 13.4245 0.063444 0.379995 -2.871232
2006-12-21 08:05:19 51°17.38 2°52.457 13.3859 0.063444 0.379995 -2.871232
2006-12-21 08:05:25 51°17.401 2°52.454 13.4269 0.063444 0.379995 -2.871232
2006-12-21 08:05:29 51°17.415 2°52.452 13.3699 0.063444 0.379995 -2.871232
2006-12-21 08:05:34 51°17.433 2°52.451 13.3973 0.063444 0.379995 -2.871232
2006-12-21 08:05:39 51°17.451 2°52.45 13.4004 0.063444 0.379995 -2.871232
2006-12-21 08:05:44 51°17.469 2°52.45 13.4028 0.063341 0.379357 -2.871232
2006-12-21 08:05:49 51°17.486 2°52.451 13.4158 0.063444 0.380003 -2.871232
2006-12-21 08:05:54 51°17.504 2°52.451 13.3946 0.063444 0.380003 -2.871232
2006-12-21 08:05:59 51°17.522 2°52.453 13.4481 0.063444 0.379995 -2.871232
2006-12-21 08:06:04 51°17.539 2°52.455 13.4373 0.063444 0.380003 -2.871232
2006-12-21 08:06:08 51°17.553 2°52.456 13.4625 0.063444 0.380003 -2.871232
2006-12-21 08:06:14 51°17.575 2°52.457 13.4401 0.063444 0.380003 -2.871232
2006-12-21 08:06:19 51°17.592 2°52.458 13.4524 0.063444 0.380011 -2.871232
2006-12-21 08:06:24 51°17.61 2°52.46 13.4537 0.063444 0.380011 -2.871232
2006-12-21 08:06:29 51°17.628 2°52.46 13.4239 0.063341 0.379374 -2.871232
2006-12-21 08:06:34 51°17.645 2°52.461 13.4341 0.063444 0.380011 -2.871232
2006-12-21 08:06:39 51°17.663 2°52.463 13.4088 0.063444 0.380011 -2.871232
2006-12-21 08:06:44 51°17.68 2°52.465 13.3841 0.063444 0.380003 -2.871232
2006-12-21 08:06:49 51°17.698 2°52.467 13.4439 0.063341 0.379374 -2.871232
2006-12-21 08:06:54 51°17.715 2°52.47 13.4315 0.063341 0.379374 -2.871232
2006-12-21 08:06:59 51°17.733 2°52.473 13.4643 0.063341 0.379374 -2.871232
2006-12-21 08:07:04 51°17.75 2°52.476 13.4446 0.063444 0.380011 -2.871232
2006-12-21 08:07:09 51°17.768 2°52.48 13.4411 0.063444 0.380011 -2.871232
2006-12-21 08:07:14 51°17.785 2°52.483 13.482 0.063341 0.379374 -2.871232
2006-12-21 08:07:18 51°17.799 2°52.486 13.4386 0.063444 0.38002 -2.871232
2006-12-21 08:07:24 51°17.82 2°52.489 13.5023 0.063444 0.38002 -2.871232
2006-12-21 08:07:29 51°17.838 2°52.492 13.449 0.063444 0.38002 -2.871232
2006-12-21 08:07:34 51°17.855 2°52.495 13.4683 0.063444 0.38002 -2.871232
2006-12-21 08:07:39 51°17.873 2°52.497 13.4104 0.063341 0.379391 -2.871232
2006-12-21 08:07:42 51°17.883 2°52.498 13.4713 0.063444 0.38002 -2.871232
2006-12-21 08:07:49 51°17.908 2°52.502 13.444 0.063444 0.380028 -2.871232
2006-12-21 08:07:54 51°17.925 2°52.505 13.4461 0.063444 0.380028 -2.871232
2006-12-21 08:07:59 51°17.943 2°52.507 13.444 0.063444 0.380028 -2.871232
2006-12-21 08:08:04 51°17.96 2°52.51 13.4589 0.063444 0.380028 -2.871232
2006-12-21 08:08:09 51°17.978 2°52.513 13.3705 0.063444 0.380028 -2.871232
2006-12-21 08:08:14 51°17.995 2°52.516 13.4311 0.063444 0.380028 -2.871232
2006-12-21 08:08:19 51°18.013 2°52.521 13.4435 0.063444 0.380037 -2.871232
2006-12-21 08:08:24 51°18.03 2°52.526 13.3828 0.063444 0.380037 -2.871232
2006-12-21 08:08:29 51°18.047 2°52.532 13.3687 0.063444 0.380028 -2.871232
2006-12-21 08:08:34 51°18.064 2°52.539 13.4007 0.063444 0.380028 -2.871232
2006-12-21 08:08:39 51°18.08 2°52.548 13.4397 0.063444 0.380037 -2.871232
2006-12-21 08:08:44 51°18.097 2°52.558 13.4338 0.063444 0.380028 -2.871232
2006-12-21 08:08:49 51°18.112 2°52.569 13.4319 0.063444 0.380037 -2.871232
2006-12-21 08:08:54 51°18.128 2°52.581 13.4355 0.063444 0.380037 -2.871232
2006-12-21 08:08:59 51°18.143 2°52.594 13.4552 0.063444 0.380037 -2.871232
2006-12-21 08:09:04 51°18.158 2°52.608 13.4519 0.063444 0.380037 -2.871232
2006-12-21 08:09:09 51°18.172 2°52.622 13.3927 0.063444 0.380045 -2.871232
2006-12-21 08:09:14 51°18.186 2°52.638 13.4694 0.063444 0.380037 -2.871232
2006-12-21 08:09:19 51°18.2 2°52.655 13.4388 0.063444 0.380045 -2.871232
2006-12-21 08:09:24 51°18.213 2°52.673 13.4632 0.063444 0.380045 -2.871232
2006-12-21 08:09:29 51°18.226 2°52.691 13.5128 0.063444 0.380045 -2.871232
2006-12-21 08:09:34 51°18.238 2°52.71 13.4886 0.063444 0.380045 -2.871232
2006-12-21 08:09:39 51°18.251 2°52.729 13.4196 0.063444 0.380045 -2.871232
2006-12-21 08:09:44 51°18.263 2°52.748 13.4038 0.063444 0.380053 -2.871232
2006-12-21 08:09:49 51°18.274 2°52.769 13.4609 0.063341 0.379407 -2.871232
2006-12-21 08:09:54 51°18.285 2°52.79 13.4495 0.063341 0.379407 -2.871232
2006-12-21 08:09:59 51°18.296 2°52.812 13.4749 0.063444 0.380045 -2.871232
2006-12-21 08:10:04 51°18.306 2°52.834 13.4578 0.063341 0.379416 -2.871232
2006-12-21 08:10:09 51°18.316 2°52.856 13.4967 0.063444 0.380053 -2.871232
2006-12-21 08:10:14 51°18.325 2°52.879 13.4439 0.063444 0.380053 -2.871232
2006-12-21 08:10:19 51°18.335 2°52.902 13.4238 0.063444 0.380053 -2.871232
2006-12-21 08:10:24 51°18.344 2°52.925 13.4825 0.063444 0.380053 -2.871232
2006-12-21 08:10:29 51°18.352 2°52.949 13.474 0.063444 0.380053 -2.871232
2006-12-21 08:10:34 51°18.361 2°52.973 13.4891 0.063341 0.379416 -2.871232
2006-12-21 08:10:39 51°18.369 2°52.997 13.4957 0.063444 0.380053 -2.871232
2006-12-21 08:10:44 51°18.378 2°53.021 13.5221 0.063341 0.379416 -2.871232
2006-12-21 08:10:48 51°18.385 2°53.04 13.5351 0.063444 0.380062 -2.871232
2006-12-21 08:10:54 51°18.395 2°53.069 13.4913 0.063444 0.380062 -2.871232
2006-12-21 08:10:59 51°18.403 2°53.093 13.5067 0.063444 0.380062 -2.871232
2006-12-21 08:11:04 51°18.412 2°53.117 13.5468 0.063444 0.380062 -2.871232
2006-12-21 08:11:09 51°18.42 2°53.141 13.5012 0.063341 0.379424 -2.871232
2006-12-21 08:11:13 51°18.427 2°53.16 13.5109 0.063444 0.38007 -2.871232
2006-12-21 08:11:19 51°18.438 2°53.189 13.5114 0.063444 0.38007 -2.871232
2006-12-21 08:11:24 51°18.447 2°53.213 13.5118 0.063444 0.38007 -2.871232
2006-12-21 08:11:29 51°18.455 2°53.236 13.5094 0.063341 0.379432 -2.871232
2006-12-21 08:11:34 51°18.464 2°53.259 13.5158 0.063444 0.38007 -2.871232
2006-12-21 08:11:39 51°18.473 2°53.283 13.4774 0.063341 0.379432 -2.871232
2006-12-21 08:11:44 51°18.482 2°53.306 13.489 0.063341 0.379432 -2.871232
2006-12-21 08:11:49 51°18.49 2°53.33 13.5283 0.063341 0.379441 -2.871232
2006-12-21 08:11:54 51°18.5 2°53.353 13.4946 0.063341 0.379441 -2.871232
2006-12-21 08:11:59 51°18.509 2°53.376 13.4916 0.063341 0.379441 -2.871232
2006-12-21 08:12:04 51°18.518 2°53.399 13.5163 0.063444 0.380078 -2.871232
2006-12-21 08:12:09 51°18.527 2°53.422 13.4731 0.063444 0.380078 -2.871232
2006-12-21 08:12:14 51°18.536 2°53.445 13.5185 0.063341 0.379441 -2.871232
2006-12-21 08:12:19 51°18.545 2°53.469 13.5056 0.063444 0.380078 -2.871232
2006-12-21 08:12:24 51°18.554 2°53.492 13.5195 0.063444 0.380078 -2.871232
2006-12-21 08:12:29 51°18.563 2°53.515 13.5096 0.063444 0.380078 -2.871232
2006-12-21 08:12:34 51°18.572 2°53.539 13.5454 0.063341 0.379441 -2.871232
2006-12-21 08:12:39 51°18.581 2°53.562 13.5583 0.063444 0.380078 -2.871232
2006-12-21 08:12:44 51°18.589 2°53.586 13.5203 0.063444 0.380087 -2.871232
2006-12-21 08:12:49 51°18.598 2°53.609 13.5095 0.063341 0.379449 -2.871232
2006-12-21 08:12:54 51°18.607 2°53.632 13.541 0.063341 0.379449 -2.871232
2006-12-21 08:12:59 51°18.616 2°53.655 13.5051 0.063444 0.380087 -2.871232
2006-12-21 08:13:04 51°18.626 2°53.679 13.4946 0.063341 0.379449 -2.871232
2006-12-21 08:13:08 51°18.633 2°53.697 13.5204 0.063341 0.379449 -2.871232
2006-12-21 08:13:14 51°18.643 2°53.725 13.4979 0.063444 0.380087 -2.871232
2006-12-21 08:13:19 51°18.653 2°53.748 13.5175 0.063444 0.380087 -2.871232
2006-12-21 08:13:24 51°18.661 2°53.772 13.4952 0.063444 0.380087 -2.871232
2006-12-21 08:13:29 51°18.67 2°53.796 13.5499 0.063444 0.380087 -2.871232
2006-12-21 08:13:34 51°18.679 2°53.819 13.5103 0.063444 0.380095 -2.871232
2006-12-21 08:13:39 51°18.687 2°53.843 13.5476 0.063341 0.379457 -2.871232
2006-12-21 08:13:44 51°18.696 2°53.867 13.5306 0.063341 0.379457 -2.871232
2006-12-21 08:13:49 51°18.704 2°53.891 13.568 0.063341 0.379457 -2.871232
2006-12-21 08:13:54 51°18.713 2°53.915 13.5735 0.063341 0.379457 -2.871232
2006-12-21 08:13:58 51°18.72 2°53.933 13.5823 0.063444 0.380095 -2.871232
2006-12-21 08:14:04 51°18.73 2°53.961 13.4898 0.063444 0.380104 -2.871232
2006-12-21 08:14:09 51°18.739 2°53.985 13.5194 0.063341 0.379457 -2.871232
2006-12-21 08:14:14 51°18.748 2°54.008 13.5428 0.063341 0.379466 -2.871232
2006-12-21 08:14:19 51°18.756 2°54.032 13.5002 0.063444 0.380104 -2.871232
2006-12-21 08:14:24 51°18.765 2°54.056 13.5731 0.063444 0.380104 -2.871232
2006-12-21 08:14:29 51°18.773 2°54.08 13.5372 0.063341 0.379466 -2.871232
2006-12-21 08:14:34 51°18.782 2°54.103 13.5225 0.063444 0.380104 -2.871232
2006-12-21 08:14:39 51°18.79 2°54.127 13.5592 0.063444 0.380104 -2.871232
2006-12-21 08:14:42 51°18.795 2°54.142 13.5454 0.063444 0.380104 -2.871232
2006-12-21 08:14:49 51°18.806 2°54.175 13.5615 0.063444 0.380104 -2.871232
2006-12-21 08:14:54 51°18.815 2°54.199 13.5287 0.063444 0.380104 -2.871232
2006-12-21 08:14:59 51°18.822 2°54.224 13.5151 0.063341 0.379474 -2.871232
2006-12-21 08:15:04 51°18.831 2°54.248 13.522 0.063341 0.379474 -2.871232
2006-12-21 08:15:09 51°18.839 2°54.272 13.5791 0.063444 0.380104 -2.871232
2006-12-21 08:15:14 51°18.846 2°54.297 13.55 0.063444 0.380112 -2.871232
2006-12-21 08:15:19 51°18.854 2°54.321 13.5604 0.063341 0.379474 -2.871232
2006-12-21 08:15:24 51°18.862 2°54.345 13.584 0.063341 0.379474 -2.871232
2006-12-21 08:15:29 51°18.87 2°54.369 13.5629 0.063341 0.379474 -2.871232
2006-12-21 08:15:34 51°18.878 2°54.393 13.5659 0.063341 0.379474 -2.871232
2006-12-21 08:15:39 51°18.886 2°54.417 13.5194 0.063341 0.379483 -2.871232
2006-12-21 08:15:44 51°18.894 2°54.441 13.5594 0.063341 0.379483 -2.871232
2006-12-21 08:15:49 51°18.902 2°54.465 13.539 0.063341 0.379483 -2.871232
2006-12-21 08:15:54 51°18.91 2°54.489 13.5294 0.063341 0.379483 -2.871232
2006-12-21 08:15:59 51°18.918 2°54.513 13.5591 0.063341 0.379483 -2.871232
2006-12-21 08:16:04 51°18.926 2°54.537 13.5753 0.063341 0.379483 -2.871232
2006-12-21 08:16:09 51°18.933 2°54.561 13.54 0.063341 0.379483 -2.871232
2006-12-21 08:16:14 51°18.941 2°54.585 13.5895 0.063444 0.38012 -2.871232
2006-12-21 08:16:18 51°18.947 2°54.605 13.5597 0.063341 0.379483 -2.871232
2006-12-21 08:16:24 51°18.956 2°54.634 13.6182 0.063341 0.379483 -2.871232
2006-12-21 08:16:29 51°18.963 2°54.659 13.5866 0.063444 0.38012 -2.871232
2006-12-21 08:16:34 51°18.971 2°54.683 13.6005 0.063444 0.380129 -2.871232
2006-12-21 08:16:39 51°18.978 2°54.708 13.5658 0.063341 0.379483 -2.871232
2006-12-21 08:16:44 51°18.985 2°54.732 13.5817 0.063444 0.380129 -2.871232
2006-12-21 08:16:49 51°18.993 2°54.756 13.586 0.063444 0.380129 -2.871232
2006-12-21 08:16:54 51°19.001 2°54.78 13.5836 0.063444 0.380129 -2.871232
2006-12-21 08:16:59 51°19.008 2°54.805 13.5812 0.063341 0.379491 -2.871232
2006-12-21 08:17:04 51°19.016 2°54.829 13.608 0.063444 0.380129 -2.871232
2006-12-21 08:17:09 51°19.023 2°54.853 13.6115 0.063341 0.379491 -2.871232
2006-12-21 08:17:14 51°19.031 2°54.877 13.6313 0.063341 0.379499 -2.871232
2006-12-21 08:17:19 51°19.039 2°54.901 13.6123 0.063341 0.379499 -2.871232
2006-12-21 08:17:24 51°19.047 2°54.925 13.5577 0.063341 0.379499 -2.871232
2006-12-21 08:17:29 51°19.054 2°54.949 13.5573 0.063444 0.380129 -2.871232
2006-12-21 08:17:34 51°19.062 2°54.973 13.5612 0.063341 0.379491 -2.871232
2006-12-21 08:17:39 51°19.069 2°54.997 13.5826 0.063341 0.379499 -2.871232
2006-12-21 08:17:44 51°19.077 2°55.022 13.6105 0.063444 0.380129 -2.871232
2006-12-21 08:17:49 51°19.083 2°55.047 13.5706 0.063341 0.379499 -2.871232
2006-12-21 08:17:54 51°19.091 2°55.071 13.6354 0.063341 0.379499 -2.871232
2006-12-21 08:17:59 51°19.097 2°55.096 13.6098 0.063341 0.379499 -2.871232
2006-12-21 08:18:04 51°19.105 2°55.12 13.6537 0.063341 0.379499 -2.871232
2006-12-21 08:18:09 51°19.111 2°55.145 13.6087 0.063341 0.379508 -2.871232
2006-12-21 08:18:14 51°19.119 2°55.169 13.6172 0.063341 0.379508 -2.871232
2006-12-21 08:18:19 51°19.126 2°55.194 13.6172 0.063444 0.380145 -2.871232
2006-12-21 08:18:24 51°19.133 2°55.218 13.646 0.063444 0.380145 -2.871232
2006-12-21 08:18:29 51°19.14 2°55.243 13.5946 0.063341 0.379508 -2.871232
2006-12-21 08:18:34 51°19.147 2°55.268 13.6418 0.063341 0.379508 -2.871232
2006-12-21 08:18:39 51°19.154 2°55.292 13.6469 0.063444 0.380145 -2.871232
2006-12-21 08:18:44 51°19.161 2°55.317 13.6007 0.063341 0.379508 -2.871232
2006-12-21 08:18:49 51°19.168 2°55.341 13.5944 0.063341 0.379508 -2.871232
2006-12-21 08:18:54 51°19.175 2°55.365 13.6341 0.063341 0.379508 -2.871232
2006-12-21 08:18:59 51°19.182 2°55.39 13.6202 0.063341 0.379508 -2.871232
2006-12-21 08:19:04 51°19.189 2°55.414 13.6455 0.063444 0.380145 -2.871232
2006-12-21 08:19:09 51°19.196 2°55.439 13.6285 0.063444 0.380145 -2.871232
2006-12-21 08:19:14 51°19.203 2°55.464 13.6209 0.063341 0.379508 -2.871232
2006-12-21 08:19:19 51°19.21 2°55.488 13.647 0.063444 0.380145 -2.871232
2006-12-21 08:19:24 51°19.217 2°55.513 13.6383 0.063444 0.380145 -2.871232
2006-12-21 08:19:29 51°19.223 2°55.538 13.6601 0.063341 0.379508 -2.871232
2006-12-21 08:19:34 51°19.231 2°55.562 13.6732 0.063341 0.379508 -2.871232
2006-12-21 08:19:39 51°19.238 2°55.587 13.6879 0.063341 0.379508 -2.871232
2006-12-21 08:19:44 51°19.245 2°55.611 13.6723 0.063341 0.379516 -2.871232
2006-12-21 08:19:49 51°19.252 2°55.635 13.6757 0.063341 0.379508 -2.871232
2006-12-21 08:19:54 51°19.259 2°55.66 13.6705 0.063341 0.379508 -2.871232
2006-12-21 08:19:59 51°19.266 2°55.684 13.6142 0.063444 0.380154 -2.871232
2006-12-21 08:20:04 51°19.273 2°55.709 13.6683 0.063444 0.380154 -2.871232
2006-12-21 08:20:09 51°19.28 2°55.733 13.6714 0.063341 0.379516 -2.871232
2006-12-21 08:20:14 51°19.287 2°55.758 13.6333 0.063341 0.379516 -2.871232
2006-12-21 08:20:19 51°19.294 2°55.782 13.6724 0.063444 0.380154 -2.871232
2006-12-21 08:20:24 51°19.301 2°55.807 13.6333 0.063444 0.380154 -2.871232
2006-12-21 08:20:29 51°19.308 2°55.831 13.6467 0.063444 0.380162 -2.871232
2006-12-21 08:20:34 51°19.315 2°55.856 13.6599 0.063341 0.379516 -2.871232
2006-12-21 08:20:39 51°19.322 2°55.88 13.6852 0.063341 0.379524 -2.871232
2006-12-21 08:20:44 51°19.329 2°55.905 13.6755 0.063341 0.379524 -2.871232
2006-12-21 08:20:49 51°19.336 2°55.93 13.6831 0.063341 0.379524 -2.871232
2006-12-21 08:20:54 51°19.343 2°55.954 13.683 0.063341 0.379524 -2.871232
2006-12-21 08:20:58 51°19.348 2°55.974 13.7172 0.063444 0.380162 -2.871232
2006-12-21 08:21:04 51°19.357 2°56.003 13.6779 0.063444 0.380162 -2.871232
2006-12-21 08:21:09 51°19.364 2°56.028 13.7193 0.063444 0.380162 -2.871232
2006-12-21 08:21:14 51°19.371 2°56.052 13.6743 0.063444 0.380162 -2.871232
2006-12-21 08:21:19 51°19.378 2°56.077 13.6405 0.063341 0.379524 -2.871232
2006-12-21 08:21:24 51°19.385 2°56.101 13.6714 0.063341 0.379524 -2.871232
2006-12-21 08:21:29 51°19.392 2°56.126 13.6741 0.063341 0.379524 -2.871232
2006-12-21 08:21:34 51°19.399 2°56.151 13.7081 0.063341 0.379524 -2.871232
2006-12-21 08:21:39 51°19.406 2°56.175 13.7036 0.063341 0.379524 -2.871232
2006-12-21 08:21:44 51°19.413 2°56.2 13.697 0.063341 0.379524 -2.871232
2006-12-21 08:21:49 51°19.42 2°56.225 13.6778 0.063341 0.379524 -2.871232
2006-12-21 08:21:54 51°19.427 2°56.249 13.69 0.063341 0.379524 -2.871232
2006-12-21 08:21:59 51°19.434 2°56.274 13.6961 0.063341 0.379524 -2.871232
2006-12-21 08:22:04 51°19.441 2°56.298 13.7486 0.063341 0.379533 -2.871232
2006-12-21 08:22:09 51°19.448 2°56.323 13.7218 0.063444 0.380171 -2.871232
2006-12-21 08:22:14 51°19.456 2°56.348 13.713 0.063341 0.379533 -2.871232
2006-12-21 08:22:19 51°19.463 2°56.373 13.6656 0.063444 0.380171 -2.871232
2006-12-21 08:22:24 51°19.469 2°56.397 13.757 0.063444 0.380171 -2.871232
2006-12-21 08:22:29 51°19.476 2°56.422 13.7573 0.063341 0.379533 -2.871232
2006-12-21 08:22:34 51°19.483 2°56.447 13.6763 0.063341 0.379533 -2.871232
2006-12-21 08:22:39 51°19.49 2°56.472 13.7361 0.063341 0.379533 -2.871232
2006-12-21 08:22:44 51°19.497 2°56.497 13.7393 0.063341 0.379541 -2.871232
2006-12-21 08:22:49 51°19.504 2°56.522 13.7183 0.063341 0.379541 -2.871232
2006-12-21 08:22:54 51°19.512 2°56.547 13.6975 0.063341 0.379541 -2.871232
2006-12-21 08:22:59 51°19.519 2°56.571 13.7556 0.063341 0.379533 -2.871232
2006-12-21 08:23:04 51°19.526 2°56.596 13.7262 0.063341 0.379533 -2.871232
2006-12-21 08:23:10 51°19.534 2°56.627 13.7404 0.063444 0.380171 -2.871232
2006-12-21 08:23:14 51°19.54 2°56.646 13.7174 0.063341 0.379533 -2.871232
2006-12-21 08:23:18 51°19.546 2°56.666 13.7124 0.063341 0.379541 -2.871232
2006-12-21 08:23:24 51°19.554 2°56.696 13.7162 0.063341 0.379541 -2.871232
2006-12-21 08:23:29 51°19.562 2°56.721 13.7264 0.063341 0.379541 -2.871232
2006-12-21 08:23:34 51°19.569 2°56.746 13.724 0.063444 0.380179 -2.871232
2006-12-21 08:23:39 51°19.576 2°56.771 13.7384 0.063444 0.380179 -2.871232
2006-12-21 08:23:44 51°19.583 2°56.796 13.739 0.063341 0.379541 -2.871232
2006-12-21 08:23:49 51°19.59 2°56.821 13.7289 0.063341 0.379541 -2.871232
2006-12-21 08:23:54 51°19.598 2°56.846 13.7072 0.063341 0.379541 -2.871232
2006-12-21 08:23:59 51°19.605 2°56.871 13.7276 0.063444 0.380179 -2.871232
2006-12-21 08:24:04 51°19.612 2°56.896 13.7764 0.063341 0.379541 -2.871232
2006-12-21 08:24:09 51°19.619 2°56.921 13.7602 0.063341 0.37955 -2.871232
2006-12-21 08:24:14 51°19.626 2°56.946 13.7191 0.063341 0.379541 -2.871232
2006-12-21 08:24:19 51°19.633 2°56.971 13.7351 0.063341 0.37955 -2.871232
2006-12-21 08:24:25 51°19.642 2°57.001 13.7574 0.063341 0.37955 -2.871232
2006-12-21 08:24:29 51°19.648 2°57.021 13.721 0.063341 0.37955 -2.871232
2006-12-21 08:24:34 51°19.655 2°57.046 13.7659 0.063444 0.380187 -2.871232
2006-12-21 08:24:39 51°19.662 2°57.071 13.7599 0.063341 0.37955 -2.871232
2006-12-21 08:24:44 51°19.669 2°57.096 13.7588 0.063341 0.37955 -2.871232
2006-12-21 08:24:49 51°19.677 2°57.122 13.767 0.063341 0.37955 -2.871232
2006-12-21 08:24:54 51°19.684 2°57.147 13.7588 0.063341 0.37955 -2.871232
2006-12-21 08:24:59 51°19.691 2°57.172 13.7338 0.063341 0.37955 -2.871232
2006-12-21 08:25:04 51°19.698 2°57.197 13.7817 0.063341 0.37955 -2.871232
2006-12-21 08:25:09 51°19.706 2°57.222 13.7596 0.063341 0.37955 -2.871232
2006-12-21 08:25:15 51°19.715 2°57.253 13.757 0.063444 0.380187 -2.871232
2006-12-21 08:25:19 51°19.72 2°57.273 13.7542 0.063341 0.379558 -2.871232
2006-12-21 08:25:24 51°19.728 2°57.298 13.7656 0.063341 0.379558 -2.871232
2006-12-21 08:25:29 51°19.735 2°57.323 13.7503 0.063341 0.379558 -2.871232
2006-12-21 08:25:34 51°19.743 2°57.348 13.7776 0.063341 0.379558 -2.871232
2006-12-21 08:25:39 51°19.75 2°57.374 13.7345 0.063444 0.380196 -2.871232
2006-12-21 08:25:45 51°19.759 2°57.404 13.7444 0.063341 0.379558 -2.871232
2006-12-21 08:25:50 51°19.767 2°57.429 13.7856 0.063341 0.379558 -2.871232
2006-12-21 08:25:55 51°19.774 2°57.454 13.7599 0.063341 0.379558 -2.871232
2006-12-21 08:25:59 51°19.78 2°57.474 13.7658 0.063444 0.380196 -2.871232
2006-12-21 08:26:05 51°19.789 2°57.505 13.7741 0.063341 0.379558 -2.871232
2006-12-21 08:26:10 51°19.797 2°57.53 13.7818 0.063341 0.379558 -2.871232
2006-12-21 08:26:15 51°19.804 2°57.555 13.7927 0.063341 0.379558 -2.871232
2006-12-21 08:26:19 51°19.81 2°57.576 13.7901 0.063341 0.379558 -2.871232
2006-12-21 08:26:25 51°19.819 2°57.606 13.798 0.063341 0.379558 -2.871232
2006-12-21 08:26:30 51°19.827 2°57.631 13.7548 0.063341 0.379566 -2.871232
2006-12-21 08:26:34 51°19.833 2°57.651 13.7714 0.063444 0.380204 -2.871232
2006-12-21 08:26:39 51°19.84 2°57.676 13.7885 0.063341 0.379566 -2.871232
2006-12-21 08:26:45 51°19.849 2°57.707 13.8081 0.063341 0.379566 -2.871232
2006-12-21 08:26:49 51°19.855 2°57.727 13.8048 0.063341 0.379566 -2.871232
2006-12-21 08:26:54 51°19.863 2°57.752 13.7497 0.063341 0.379566 -2.871232
2006-12-21 08:26:59 51°19.87 2°57.777 13.8053 0.063444 0.380204 -2.871232
2006-12-21 08:27:05 51°19.879 2°57.807 13.7881 0.063341 0.379566 -2.871232
2006-12-21 08:27:10 51°19.887 2°57.832 13.7567 0.063444 0.380204 -2.871232
2006-12-21 08:27:15 51°19.894 2°57.858 13.7984 0.063444 0.380204 -2.871232
2006-12-21 08:27:19 51°19.9 2°57.878 13.7697 0.063341 0.379566 -2.871232
2006-12-21 08:27:25 51°19.908 2°57.908 13.8293 0.063341 0.379566 -2.871232
2006-12-21 08:27:30 51°19.916 2°57.933 13.8021 0.063341 0.379575 -2.871232
2006-12-21 08:27:35 51°19.923 2°57.959 13.8338 0.063341 0.379575 -2.871232
2006-12-21 08:27:39 51°19.929 2°57.979 13.8127 0.063341 0.379575 -2.871232
2006-12-21 08:27:45 51°19.938 2°58.009 13.8258 0.063341 0.379575 -2.871232
2006-12-21 08:27:50 51°19.945 2°58.034 13.7644 0.063341 0.379575 -2.871232
2006-12-21 08:27:55 51°19.953 2°58.059 13.825 0.063341 0.379575 -2.871232
2006-12-21 08:27:59 51°19.959 2°58.079 13.7964 0.063341 0.379575 -2.871232
2006-12-21 08:28:05 51°19.968 2°58.109 13.7932 0.063444 0.380213 -2.871232
2006-12-21 08:28:10 51°19.976 2°58.134 13.7818 0.063341 0.379575 -2.871232
2006-12-21 08:28:15 51°19.983 2°58.16 13.7798 0.063444 0.380213 -2.871232
2006-12-21 08:28:19 51°19.989 2°58.18 13.8166 0.063341 0.379575 -2.871232
2006-12-21 08:28:25 51°19.998 2°58.212 13.8116 0.063341 0.379575 -2.871232
2006-12-21 08:28:30 51°20.005 2°58.238 13.8478 0.063341 0.379575 -2.871232
2006-12-21 08:28:35 51°20.012 2°58.263 13.8115 0.063341 0.379583 -2.871232
2006-12-21 08:28:39 51°20.018 2°58.284 13.8029 0.063341 0.379583 -2.871232
2006-12-21 08:28:45 51°20.027 2°58.314 13.8667 0.063341 0.379583 -2.871232
2006-12-21 08:28:50 51°20.035 2°58.339 13.8392 0.063444 0.380221 -2.871232
2006-12-21 08:28:55 51°20.043 2°58.364 13.8114 0.063444 0.380221 -2.871232
2006-12-21 08:28:59 51°20.049 2°58.384 13.804 0.063341 0.379583 -2.871232
2006-12-21 08:29:05 51°20.057 2°58.415 13.8255 0.063341 0.379583 -2.871232
2006-12-21 08:29:09 51°20.064 2°58.435 13.8173 0.063341 0.379583 -2.871232
2006-12-21 08:29:15 51°20.072 2°58.465 13.7999 0.063341 0.379583 -2.871232
2006-12-21 08:29:19 51°20.079 2°58.486 13.8303 0.063341 0.379591 -2.871232
2006-12-21 08:29:25 51°20.087 2°58.516 13.8034 0.063341 0.379591 -2.871232
2006-12-21 08:29:30 51°20.094 2°58.542 13.8474 0.063341 0.379591 -2.871232
2006-12-21 08:29:35 51°20.101 2°58.567 13.7964 0.063341 0.379591 -2.871232
2006-12-21 08:29:39 51°20.107 2°58.587 13.8685 0.063341 0.379591 -2.871232
2006-12-21 08:29:45 51°20.116 2°58.617 13.8462 0.063341 0.379591 -2.871232
2006-12-21 08:29:50 51°20.124 2°58.643 13.874 0.063341 0.3796 -2.871232
2006-12-21 08:29:55 51°20.131 2°58.668 13.8117 0.063341 0.3796 -2.871232
2006-12-21 08:29:59 51°20.137 2°58.688 13.8295 0.063444 0.380229 -2.871232
2006-12-21 08:30:05 51°20.146 2°58.718 13.8372 0.063341 0.379591 -2.871232
2006-12-21 08:30:10 51°20.153 2°58.744 13.8365 0.063341 0.3796 -2.871232
2006-12-21 08:30:15 51°20.161 2°58.769 13.853 0.063341 0.379591 -2.871232
2006-12-21 08:30:19 51°20.166 2°58.789 13.8759 0.063341 0.3796 -2.871232
2006-12-21 08:30:25 51°20.175 2°58.82 13.8771 0.063341 0.3796 -2.871232
2006-12-21 08:30:30 51°20.182 2°58.845 13.8573 0.063341 0.3796 -2.871232
2006-12-21 08:30:35 51°20.19 2°58.87 13.8782 0.063444 0.380238 -2.871232
2006-12-21 08:30:39 51°20.196 2°58.891 13.8849 0.063341 0.3796 -2.871232
2006-12-21 08:30:45 51°20.205 2°58.921 13.8243 0.063341 0.3796 -2.871232
2006-12-21 08:30:50 51°20.212 2°58.947 13.892 0.063341 0.3796 -2.871232
2006-12-21 08:30:54 51°20.218 2°58.967 13.879 0.063341 0.3796 -2.871232
2006-12-21 08:30:59 51°20.225 2°58.992 13.8925 0.063341 0.3796 -2.871232
2006-12-21 08:31:05 51°20.235 2°59.022 13.8134 0.063341 0.379608 -2.871232
2006-12-21 08:31:10 51°20.242 2°59.048 13.8862 0.063341 0.3796 -2.871232
2006-12-21 08:31:15 51°20.25 2°59.073 13.8871 0.063341 0.379608 -2.871232
2006-12-21 08:31:19 51°20.255 2°59.094 13.8307 0.063444 0.380246 -2.871232
2006-12-21 08:31:25 51°20.264 2°59.124 13.8923 0.063444 0.380246 -2.871232
2006-12-21 08:31:30 51°20.272 2°59.15 13.8516 0.063341 0.379608 -2.871232
2006-12-21 08:31:35 51°20.279 2°59.175 13.8869 0.063341 0.379608 -2.871232
2006-12-21 08:31:39 51°20.285 2°59.195 13.8619 0.063444 0.380246 -2.871232
2006-12-21 08:31:45 51°20.294 2°59.226 13.8885 0.063341 0.379608 -2.871232
2006-12-21 08:31:50 51°20.302 2°59.252 13.885 0.063341 0.379608 -2.871232
2006-12-21 08:31:55 51°20.309 2°59.277 13.8334 0.063341 0.379608 -2.871232
2006-12-21 08:31:59 51°20.315 2°59.297 13.9242 0.063341 0.379608 -2.871232
2006-12-21 08:32:05 51°20.324 2°59.328 13.9068 0.063341 0.379616 -2.871232
2006-12-21 08:32:10 51°20.331 2°59.354 13.8864 0.063341 0.379616 -2.871232
2006-12-21 08:32:14 51°20.338 2°59.374 13.8951 0.063341 0.379616 -2.871232
2006-12-21 08:32:19 51°20.345 2°59.4 13.9142 0.063444 0.380254 -2.871232
2006-12-21 08:32:25 51°20.354 2°59.43 13.9087 0.063444 0.380254 -2.871232
2006-12-21 08:32:30 51°20.362 2°59.456 13.8879 0.063341 0.379616 -2.871232
2006-12-21 08:32:34 51°20.368 2°59.476 13.9035 0.063341 0.379616 -2.871232
2006-12-21 08:32:39 51°20.375 2°59.502 13.9135 0.063341 0.379616 -2.871232
2006-12-21 08:32:45 51°20.384 2°59.532 13.8909 0.063341 0.379616 -2.871232
2006-12-21 08:32:50 51°20.392 2°59.558 13.8558 0.063341 0.379616 -2.871232
2006-12-21 08:32:54 51°20.397 2°59.578 13.9037 0.063341 0.379616 -2.871232
2006-12-21 08:32:59 51°20.404 2°59.604 13.9164 0.063341 0.379616 -2.871232
2006-12-21 08:33:05 51°20.413 2°59.634 13.9197 0.063341 0.379616 -2.871232
2006-12-21 08:33:10 51°20.421 2°59.66 13.9197 0.063341 0.379625 -2.871232
2006-12-21 08:33:14 51°20.427 2°59.68 13.8709 0.063341 0.379625 -2.871232
2006-12-21 08:33:19 51°20.434 2°59.706 13.8848 0.063341 0.379625 -2.871232
2006-12-21 08:33:25 51°20.443 2°59.736 13.8989 0.063341 0.379625 -2.871232
2006-12-21 08:33:30 51°20.451 2°59.762 13.9088 0.063341 0.379625 -2.871232
2006-12-21 08:33:34 51°20.456 2°59.782 13.8786 0.063341 0.379625 -2.871232
2006-12-21 08:33:39 51°20.464 2°59.807 13.8943 0.063341 0.379625 -2.871232
2006-12-21 08:33:45 51°20.473 2°59.838 13.8539 0.063341 0.379625 -2.871232
2006-12-21 08:33:50 51°20.48 2°59.864 13.8528 0.063341 0.379625 -2.871232
2006-12-21 08:33:54 51°20.486 2°59.884 13.9201 0.063341 0.379625 -2.871232
2006-12-21 08:33:59 51°20.493 2°59.909 13.8931 0.063341 0.379625 -2.871232
2006-12-21 08:34:05 51°20.503 2°59.94 13.919 0.063341 0.379625 -2.871232
2006-12-21 08:34:10 51°20.51 2°59.966 13.9441 0.063341 0.379633 -2.871232
2006-12-21 08:34:14 51°20.516 2°59.986 13.9322 0.063341 0.379625 -2.871232
2006-12-21 08:34:19 51°20.524 3°0.011 13.8795 0.063341 0.379633 -2.871232
2006-12-21 08:34:25 51°20.533 3°0.042 13.9112 0.063341 0.379633 -2.871232
2006-12-21 08:34:30 51°20.541 3°0.067 13.9139 0.063341 0.379633 -2.871232
2006-12-21 08:34:34 51°20.547 3°0.087 13.9028 0.063341 0.379633 -2.871232
2006-12-21 08:34:39 51°20.554 3°0.112 13.8983 0.063341 0.379642 -2.871232
2006-12-21 08:34:45 51°20.563 3°0.143 13.9257 0.063341 0.379633 -2.871232
2006-12-21 08:34:50 51°20.571 3°0.168 13.903 0.063341 0.379642 -2.871232
2006-12-21 08:34:54 51°20.577 3°0.189 13.8776 0.063341 0.379642 -2.871232
2006-12-21 08:34:59 51°20.584 3°0.214 13.8934 0.063341 0.379633 -2.871232
2006-12-21 08:35:04 51°20.591 3°0.24 13.8932 0.063341 0.379642 -2.871232
2006-12-21 08:35:10 51°20.601 3°0.27 13.8632 0.063341 0.379642 -2.871232
2006-12-21 08:35:14 51°20.606 3°0.291 13.9245 0.063341 0.379642 -2.871232
2006-12-21 08:35:19 51°20.613 3°0.317 13.938 0.063341 0.379642 -2.871232
2006-12-21 08:35:25 51°20.622 3°0.348 13.9262 0.063341 0.379642 -2.871232
2006-12-21 08:35:30 51°20.63 3°0.373 13.9242 0.063341 0.379642 -2.871232
2006-12-21 08:35:34 51°20.636 3°0.393 13.8896 0.063341 0.37965 -2.871232
2006-12-21 08:35:39 51°20.643 3°0.419 13.9326 0.063341 0.37965 -2.871232
2006-12-21 08:35:45 51°20.652 3°0.449 13.9135 0.063341 0.37965 -2.871232
2006-12-21 08:35:50 51°20.66 3°0.475 13.8893 0.063341 0.379642 -2.871232
2006-12-21 08:35:54 51°20.666 3°0.495 13.9738 0.063341 0.379642 -2.871232
2006-12-21 08:35:59 51°20.673 3°0.521 13.9036 0.063341 0.37965 -2.871232
2006-12-21 08:36:05 51°20.682 3°0.552 13.9612 0.063341 0.37965 -2.871232
2006-12-21 08:36:10 51°20.69 3°0.577 13.9673 0.063341 0.37965 -2.871232
2006-12-21 08:36:14 51°20.695 3°0.598 13.971 0.063341 0.37965 -2.871232
2006-12-21 08:36:19 51°20.703 3°0.623 13.9704 0.063341 0.37965 -2.871232
2006-12-21 08:36:25 51°20.712 3°0.653 13.9088 0.063341 0.37965 -2.871232
2006-12-21 08:36:30 51°20.72 3°0.679 13.9245 0.063341 0.37965 -2.871232
2006-12-21 08:36:34 51°20.726 3°0.699 13.9616 0.063341 0.379658 -2.871232
2006-12-21 08:36:39 51°20.733 3°0.726 13.9821 0.063341 0.379658 -2.871232
2006-12-21 08:36:45 51°20.742 3°0.756 13.9819 0.063341 0.37965 -2.871232
2006-12-21 08:36:50 51°20.749 3°0.782 13.9066 0.063341 0.379658 -2.871232
2006-12-21 08:36:55 51°20.757 3°0.807 13.9717 0.063341 0.379658 -2.871232
2006-12-21 08:36:59 51°20.762 3°0.828 13.9385 0.063341 0.379658 -2.871232
2006-12-21 08:37:05 51°20.772 3°0.858 13.9812 0.063341 0.379658 -2.871232
2006-12-21 08:37:10 51°20.779 3°0.884 13.9055 0.063341 0.379667 -2.871232
2006-12-21 08:37:14 51°20.785 3°0.904 13.899 0.063341 0.379658 -2.871232
2006-12-21 08:37:19 51°20.793 3°0.93 13.9162 0.063341 0.379658 -2.871232
2006-12-21 08:37:25 51°20.801 3°0.96 13.9442 0.063341 0.379658 -2.871232
2006-12-21 08:37:30 51°20.808 3°0.986 13.8839 0.063341 0.379667 -2.871232
2006-12-21 08:37:34 51°20.814 3°1.007 13.8864 0.063341 0.379667 -2.871232
2006-12-21 08:37:39 51°20.82 3°1.033 13.9413 0.063341 0.379658 -2.871232
2006-12-21 08:37:45 51°20.828 3°1.065 13.9284 0.063341 0.379667 -2.871232
2006-12-21 08:37:50 51°20.834 3°1.091 13.9373 0.063341 0.379667 -2.871232
2006-12-21 08:37:54 51°20.839 3°1.113 13.9708 0.063341 0.379667 -2.871232
2006-12-21 08:37:59 51°20.845 3°1.139 14.0028 0.063341 0.379667 -2.871232
2006-12-21 08:38:05 51°20.852 3°1.171 14.0115 0.063341 0.379675 -2.871232
2006-12-21 08:38:10 51°20.859 3°1.197 13.9601 0.063341 0.379667 -2.871232
2006-12-21 08:38:14 51°20.864 3°1.219 13.9551 0.063341 0.379675 -2.871232
2006-12-21 08:38:19 51°20.87 3°1.245 13.9635 0.063341 0.379675 -2.871232
2006-12-21 08:38:25 51°20.877 3°1.277 13.9525 0.063341 0.379675 -2.871232
2006-12-21 08:38:30 51°20.883 3°1.303 13.9531 0.063341 0.379667 -2.871232
2006-12-21 08:38:34 51°20.888 3°1.324 13.9392 0.063341 0.379675 -2.871232
2006-12-21 08:38:39 51°20.894 3°1.351 14.0233 0.063341 0.379675 -2.871232
2006-12-21 08:38:45 51°20.901 3°1.383 13.9547 0.063341 0.379675 -2.871232
2006-12-21 08:38:50 51°20.907 3°1.409 13.9801 0.063341 0.379675 -2.871232
2006-12-21 08:38:55 51°20.913 3°1.435 13.9708 0.063341 0.379675 -2.871232
2006-12-21 08:38:59 51°20.919 3°1.456 13.9667 0.063341 0.379675 -2.871232
2006-12-21 08:39:05 51°20.926 3°1.487 13.9745 0.063341 0.379675 -2.871232
2006-12-21 08:39:10 51°20.932 3°1.514 14.014 0.063341 0.379683 -2.871232
2006-12-21 08:39:14 51°20.937 3°1.535 13.9092 0.063341 0.379683 -2.871232
2006-12-21 08:39:19 51°20.943 3°1.561 13.9467 0.063341 0.379675 -2.871232
2006-12-21 08:39:25 51°20.95 3°1.592 13.9816 0.063341 0.379675 -2.871232
2006-12-21 08:39:30 51°20.956 3°1.619 13.9752 0.063341 0.379683 -2.871232
2006-12-21 08:39:34 51°20.961 3°1.639 13.9521 0.063341 0.379683 -2.871232
2006-12-21 08:39:39 51°20.967 3°1.666 14.0096 0.063341 0.379683 -2.871232
2006-12-21 08:39:45 51°20.974 3°1.697 13.9711 0.063341 0.379683 -2.871232
2006-12-21 08:39:50 51°20.98 3°1.723 14.0252 0.063341 0.379683 -2.871232
2006-12-21 08:39:55 51°20.986 3°1.749 14.0185 0.063341 0.379683 -2.871232
2006-12-21 08:39:59 51°20.991 3°1.77 13.9939 0.063341 0.379692 -2.871232
2006-12-21 08:40:05 51°20.998 3°1.801 14.0271 0.063341 0.379692 -2.871232
2006-12-21 08:40:10 51°21.004 3°1.827 13.9934 0.063341 0.379692 -2.871232
2006-12-21 08:40:14 51°21.01 3°1.848 14.0093 0.063341 0.379692 -2.871232
2006-12-21 08:40:19 51°21.016 3°1.874 14.0229 0.063341 0.379692 -2.871232
2006-12-21 08:40:25 51°21.023 3°1.905 14.0268 0.063341 0.379692 -2.871232
2006-12-21 08:40:30 51°21.029 3°1.931 14.0172 0.063341 0.3797 -2.871232
2006-12-21 08:40:34 51°21.034 3°1.952 13.9969 0.063341 0.379692 -2.871232
2006-12-21 08:40:39 51°21.04 3°1.978 13.9792 0.063341 0.379692 -2.871232
2006-12-21 08:40:45 51°21.048 3°2.01 13.9987 0.063341 0.3797 -2.871232
2006-12-21 08:40:50 51°21.053 3°2.036 14.0179 0.063341 0.3797 -2.871232
2006-12-21 08:40:54 51°21.058 3°2.057 14.0305 0.063341 0.3797 -2.871232
2006-12-21 08:40:59 51°21.064 3°2.083 14.019 0.063341 0.3797 -2.871232
2006-12-21 08:41:05 51°21.071 3°2.114 14.0537 0.063341 0.3797 -2.871232
2006-12-21 08:41:10 51°21.077 3°2.14 13.984 0.063341 0.3797 -2.871232
2006-12-21 08:41:14 51°21.082 3°2.161 14.0464 0.063341 0.3797 -2.871232
2006-12-21 08:41:19 51°21.088 3°2.187 14.0169 0.063341 0.379709 -2.871232
2006-12-21 08:41:25 51°21.096 3°2.218 14.0095 0.063341 0.379709 -2.871232
2006-12-21 08:41:30 51°21.102 3°2.245 14.0107 0.063341 0.3797 -2.871232
2006-12-21 08:41:34 51°21.107 3°2.265 14.0634 0.063341 0.379709 -2.871232
2006-12-21 08:41:39 51°21.112 3°2.292 14.0263 0.063341 0.379709 -2.871232
2006-12-21 08:41:45 51°21.12 3°2.323 13.9853 0.063341 0.379709 -2.871232
2006-12-21 08:41:50 51°21.126 3°2.349 14.0512 0.063341 0.379709 -2.871232
2006-12-21 08:41:54 51°21.131 3°2.37 13.9642 0.063341 0.379709 -2.871232
2006-12-21 08:41:59 51°21.138 3°2.396 14.0132 0.063341 0.379709 -2.871232
2006-12-21 08:42:05 51°21.145 3°2.428 14.0251 0.063341 0.379709 -2.871232
2006-12-21 08:42:10 51°21.151 3°2.454 13.9893 0.063341 0.379709 -2.871232
2006-12-21 08:42:14 51°21.156 3°2.475 14.0074 0.063341 0.379709 -2.871232
2006-12-21 08:42:19 51°21.162 3°2.501 14.02 0.063341 0.379717 -2.871232
2006-12-21 08:42:25 51°21.17 3°2.533 14.0508 0.063341 0.379717 -2.871232
2006-12-21 08:42:30 51°21.176 3°2.559 14.0399 0.063341 0.379709 -2.871232
2006-12-21 08:42:34 51°21.181 3°2.58 14.0287 0.063341 0.379717 -2.871232
2006-12-21 08:42:39 51°21.187 3°2.607 14.0619 0.063341 0.379717 -2.871232
2006-12-21 08:42:45 51°21.194 3°2.638 14.0238 0.063341 0.379717 -2.871232
2006-12-21 08:42:50 51°21.201 3°2.664 14.0535 0.063341 0.379717 -2.871232
2006-12-21 08:42:54 51°21.206 3°2.685 14.0152 0.063341 0.379717 -2.871232
2006-12-21 08:42:59 51°21.212 3°2.711 14.0189 0.063341 0.379725 -2.871232
2006-12-21 08:43:04 51°21.218 3°2.737 14.0518 0.063341 0.379725 -2.871232
2006-12-21 08:43:10 51°21.225 3°2.769 14.0026 0.063341 0.379717 -2.871232
2006-12-21 08:43:14 51°21.231 3°2.79 14.0516 0.063341 0.379717 -2.871232
2006-12-21 08:43:19 51°21.236 3°2.816 14.069 0.063341 0.379725 -2.871232
2006-12-21 08:43:25 51°21.244 3°2.848 14.0758 0.063341 0.379725 -2.871232
2006-12-21 08:43:30 51°21.25 3°2.874 14.0686 0.063341 0.379725 -2.871232
2006-12-21 08:43:34 51°21.255 3°2.895 14.0646 0.063341 0.379725 -2.871232
2006-12-21 08:43:39 51°21.261 3°2.921 14.0493 0.063341 0.379725 -2.871232
2006-12-21 08:43:45 51°21.269 3°2.953 14.0667 0.063341 0.379725 -2.871232
2006-12-21 08:43:50 51°21.275 3°2.979 14.0669 0.063341 0.379725 -2.871232
2006-12-21 08:43:54 51°21.28 3°3 14.0447 0.063341 0.379725 -2.871232
2006-12-21 08:43:59 51°21.286 3°3.026 14.0677 0.063341 0.379734 -2.871232
2006-12-21 08:44:05 51°21.294 3°3.058 13.9993 0.063341 0.379734 -2.871232
2006-12-21 08:44:10 51°21.3 3°3.084 14.0925 0.063341 0.379734 -2.871232
2006-12-21 08:44:14 51°21.305 3°3.105 14.0791 0.063341 0.379734 -2.871232
2006-12-21 08:44:19 51°21.311 3°3.132 14.0122 0.063341 0.379734 -2.871232
2006-12-21 08:44:25 51°21.318 3°3.163 14.0343 0.063341 0.379734 -2.871232
2006-12-21 08:44:30 51°21.324 3°3.19 14.0933 0.063341 0.379734 -2.871232
2006-12-21 08:44:34 51°21.329 3°3.211 14.0276 0.063341 0.379734 -2.871232
2006-12-21 08:44:39 51°21.335 3°3.237 14.0222 0.063341 0.379734 -2.871232
2006-12-21 08:44:45 51°21.343 3°3.269 14.1001 0.063341 0.379734 -2.871232
2006-12-21 08:44:50 51°21.349 3°3.296 14.0433 0.063341 0.379734 -2.871232
2006-12-21 08:44:54 51°21.354 3°3.317 14.1098 0.063341 0.379734 -2.871232
2006-12-21 08:44:59 51°21.36 3°3.343 14.0633 0.063341 0.379742 -2.871232
2006-12-21 08:45:05 51°21.367 3°3.375 14.1018 0.063341 0.379742 -2.871232
2006-12-21 08:45:10 51°21.374 3°3.401 14.0291 0.063341 0.379742 -2.871232
2006-12-21 08:45:14 51°21.379 3°3.422 14.1164 0.063341 0.379742 -2.871232
2006-12-21 08:45:19 51°21.385 3°3.449 14.0435 0.063341 0.37975 -2.871232
2006-12-21 08:45:25 51°21.392 3°3.481 14.1044 0.063341 0.37975 -2.871232
2006-12-21 08:45:30 51°21.399 3°3.507 14.0487 0.063341 0.37975 -2.871232
2006-12-21 08:45:34 51°21.403 3°3.528 14.0792 0.063341 0.379742 -2.871232
2006-12-21 08:45:39 51°21.409 3°3.555 14.0946 0.063341 0.37975 -2.871232
2006-12-21 08:45:45 51°21.417 3°3.587 14.0766 0.063341 0.37975 -2.871232
2006-12-21 08:45:50 51°21.423 3°3.613 14.12 0.063341 0.37975 -2.871232
2006-12-21 08:45:54 51°21.428 3°3.634 14.1182 0.063341 0.37975 -2.871232
2006-12-21 08:45:59 51°21.434 3°3.661 14.1196 0.063341 0.37975 -2.871232
2006-12-21 08:46:05 51°21.441 3°3.692 14.0844 0.063341 0.37975 -2.871232
2006-12-21 08:46:10 51°21.447 3°3.719 14.1165 0.063341 0.379759 -2.871232
2006-12-21 08:46:14 51°21.452 3°3.74 14.0823 0.063341 0.37975 -2.871232
2006-12-21 08:46:19 51°21.458 3°3.767 14.0807 0.063341 0.37975 -2.871232
2006-12-21 08:46:25 51°21.465 3°3.799 14.0858 0.063341 0.37975 -2.871232
2006-12-21 08:46:30 51°21.472 3°3.826 14.0972 0.063341 0.379759 -2.871232
2006-12-21 08:46:34 51°21.476 3°3.847 14.0984 0.063341 0.37975 -2.871232
2006-12-21 08:46:39 51°21.482 3°3.874 14.1059 0.063341 0.379759 -2.871232
2006-12-21 08:46:45 51°21.489 3°3.906 14.1125 0.063341 0.37975 -2.871232
2006-12-21 08:46:50 51°21.494 3°3.934 14.12 0.063341 0.379759 -2.871232
2006-12-21 08:46:54 51°21.499 3°3.955 14.1421 0.063341 0.379759 -2.871232
2006-12-21 08:46:59 51°21.504 3°3.982 14.1144 0.063341 0.379759 -2.871232
2006-12-21 08:47:05 51°21.511 3°4.014 14.1447 0.063341 0.379759 -2.871232
2006-12-21 08:47:10 51°21.516 3°4.041 14.1037 0.063341 0.379767 -2.871232
2006-12-21 08:47:14 51°21.521 3°4.063 14.1316 0.063341 0.379759 -2.871232
2006-12-21 08:47:19 51°21.527 3°4.09 14.1532 0.063341 0.379767 -2.871232
2006-12-21 08:47:25 51°21.533 3°4.122 14.1516 0.063341 0.379767 -2.871232
2006-12-21 08:47:30 51°21.538 3°4.149 14.1475 0.063341 0.379767 -2.871232
2006-12-21 08:47:34 51°21.543 3°4.171 14.1582 0.063341 0.379767 -2.871232
2006-12-21 08:47:39 51°21.548 3°4.198 14.1295 0.063341 0.379767 -2.871232
2006-12-21 08:47:45 51°21.555 3°4.23 14.1237 0.063341 0.379776 -2.871232
2006-12-21 08:47:49 51°21.559 3°4.251 14.1222 0.063341 0.379767 -2.871232
2006-12-21 08:47:54 51°21.565 3°4.278 14.1404 0.063341 0.379767 -2.871232
2006-12-21 08:47:59 51°21.57 3°4.306 14.1343 0.063341 0.379767 -2.871232
2006-12-21 08:48:05 51°21.577 3°4.338 14.1317 0.063341 0.379767 -2.871232
2006-12-21 08:48:10 51°21.582 3°4.365 14.1724 0.063341 0.379767 -2.871232
2006-12-21 08:48:14 51°21.586 3°4.386 14.1664 0.063341 0.379776 -2.871232
2006-12-21 08:48:19 51°21.592 3°4.413 14.1859 0.063341 0.379776 -2.871232
2006-12-21 08:48:25 51°21.598 3°4.446 14.1468 0.063341 0.379776 -2.871232
2006-12-21 08:48:30 51°21.603 3°4.473 14.1696 0.063341 0.379776 -2.871232
2006-12-21 08:48:34 51°21.608 3°4.495 14.119 0.063341 0.379776 -2.871232
2006-12-21 08:48:39 51°21.613 3°4.522 14.1431 0.063341 0.379776 -2.871232
2006-12-21 08:48:45 51°21.618 3°4.555 14.1728 0.063341 0.379776 -2.871232
2006-12-21 08:48:50 51°21.623 3°4.582 14.0966 0.063341 0.379776 -2.871232
2006-12-21 08:48:54 51°21.627 3°4.604 14.2159 0.063341 0.379776 -2.871232
2006-12-21 08:48:59 51°21.631 3°4.631 14.1652 0.063341 0.379784 -2.871232
2006-12-21 08:49:05 51°21.637 3°4.664 14.1634 0.063341 0.379784 -2.871232
2006-12-21 08:49:10 51°21.641 3°4.692 14.2095 0.063341 0.379784 -2.871232
2006-12-21 08:49:14 51°21.644 3°4.714 14.192 0.063341 0.379784 -2.871232
2006-12-21 08:49:19 51°21.649 3°4.741 14.215 0.063341 0.379784 -2.871232
2006-12-21 08:49:25 51°21.654 3°4.774 14.1964 0.063341 0.379784 -2.871232
2006-12-21 08:49:30 51°21.659 3°4.801 14.2141 0.063341 0.379784 -2.871232
2006-12-21 08:49:34 51°21.663 3°4.823 14.1988 0.063341 0.379792 -2.871232
2006-12-21 08:49:39 51°21.668 3°4.851 14.2081 0.063341 0.379792 -2.871232
2006-12-21 08:49:45 51°21.674 3°4.883 14.1897 0.063341 0.379792 -2.871232
2006-12-21 08:49:50 51°21.679 3°4.911 14.195 0.063341 0.379792 -2.871232
2006-12-21 08:49:54 51°21.683 3°4.932 14.1923 0.063341 0.379792 -2.871232
2006-12-21 08:49:59 51°21.687 3°4.96 14.1973 0.063341 0.379792 -2.871232
2006-12-21 08:50:05 51°21.693 3°4.993 14.2335 0.063341 0.379792 -2.871232
2006-12-21 08:50:10 51°21.698 3°5.02 14.211 0.063341 0.379792 -2.871232
2006-12-21 08:50:14 51°21.702 3°5.042 14.1671 0.063341 0.379792 -2.871232
2006-12-21 08:50:19 51°21.706 3°5.07 14.2 0.063341 0.379792 -2.871232
2006-12-21 08:50:25 51°21.711 3°5.103 14.1638 0.063341 0.379792 -2.871232
2006-12-21 08:50:30 51°21.716 3°5.13 14.2141 0.063341 0.379792 -2.871232
2006-12-21 08:50:34 51°21.719 3°5.152 14.2056 0.063341 0.379792 -2.871232
2006-12-21 08:50:39 51°21.724 3°5.179 14.2174 0.063341 0.379801 -2.871232
2006-12-21 08:50:45 51°21.729 3°5.212 14.2301 0.063341 0.379792 -2.871232
2006-12-21 08:50:50 51°21.734 3°5.239 14.2332 0.063341 0.379801 -2.871232
2006-12-21 08:50:54 51°21.737 3°5.261 14.1817 0.063341 0.379801 -2.871232
2006-12-21 08:50:59 51°21.742 3°5.289 14.2274 0.063341 0.379801 -2.871232
2006-12-21 08:51:05 51°21.747 3°5.322 14.2444 0.063341 0.379801 -2.871232
2006-12-21 08:51:10 51°21.752 3°5.349 14.2148 0.063341 0.379801 -2.871232
2006-12-21 08:51:14 51°21.755 3°5.37 14.2041 0.063341 0.379809 -2.871232
2006-12-21 08:51:19 51°21.759 3°5.398 14.188 0.063341 0.379801 -2.871232
2006-12-21 08:51:25 51°21.765 3°5.431 14.2447 0.063341 0.379801 -2.871232
2006-12-21 08:51:30 51°21.769 3°5.458 14.2201 0.063341 0.379801 -2.871232
2006-12-21 08:51:34 51°21.772 3°5.48 14.1562 0.063341 0.379809 -2.871232
2006-12-21 08:51:39 51°21.776 3°5.508 14.2493 0.063341 0.379801 -2.871232
2006-12-21 08:51:45 51°21.78 3°5.541 14.2378 0.063341 0.379809 -2.871232
2006-12-21 08:51:50 51°21.784 3°5.568 14.252 0.063341 0.379809 -2.871232
2006-12-21 08:51:54 51°21.787 3°5.591 14.1972 0.063341 0.379809 -2.871232
2006-12-21 08:51:59 51°21.791 3°5.618 14.2283 0.063341 0.379809 -2.871232
2006-12-21 08:52:05 51°21.795 3°5.651 14.1915 0.063341 0.379809 -2.871232
2006-12-21 08:52:10 51°21.799 3°5.679 14.241 0.063341 0.379809 -2.871232
2006-12-21 08:52:14 51°21.801 3°5.701 14.2847 0.063341 0.379809 -2.871232
2006-12-21 08:52:19 51°21.805 3°5.729 14.2614 0.063341 0.379818 -2.871232
2006-12-21 08:52:25 51°21.81 3°5.762 14.2554 0.063341 0.379818 -2.871232
2006-12-21 08:52:30 51°21.814 3°5.789 14.2487 0.063341 0.379809 -2.871232
2006-12-21 08:52:34 51°21.817 3°5.811 14.2117 0.063341 0.379818 -2.871232
2006-12-21 08:52:39 51°21.821 3°5.839 14.2387 0.063341 0.379818 -2.871232
2006-12-21 08:52:45 51°21.825 3°5.872 14.2258 0.063341 0.379818 -2.871232
2006-12-21 08:52:50 51°21.829 3°5.899 14.2342 0.063341 0.379818 -2.871232
2006-12-21 08:52:54 51°21.832 3°5.921 14.2575 0.063341 0.379818 -2.871232
2006-12-21 08:52:59 51°21.836 3°5.949 14.2594 0.063341 0.379818 -2.871232
2006-12-21 08:53:05 51°21.84 3°5.982 14.224 0.063341 0.379826 -2.871232
2006-12-21 08:53:10 51°21.844 3°6.009 14.2907 0.063341 0.379818 -2.871232
2006-12-21 08:53:14 51°21.847 3°6.032 14.2429 0.063341 0.379826 -2.871232
2006-12-21 08:53:19 51°21.851 3°6.059 14.2662 0.063341 0.379826 -2.871232
2006-12-21 08:53:25 51°21.856 3°6.092 14.2615 0.063341 0.379826 -2.871232
2006-12-21 08:53:30 51°21.86 3°6.119 14.2704 0.063341 0.379826 -2.871232
2006-12-21 08:53:34 51°21.863 3°6.141 14.2472 0.063341 0.379826 -2.871232
2006-12-21 08:53:39 51°21.867 3°6.169 14.2596 0.063341 0.379826 -2.871232
2006-12-21 08:53:45 51°21.871 3°6.202 14.2541 0.063341 0.379826 -2.871232
2006-12-21 08:53:50 51°21.875 3°6.229 14.2523 0.063341 0.379834 -2.871232
2006-12-21 08:53:54 51°21.878 3°6.251 14.2781 0.063341 0.379834 -2.871232
2006-12-21 08:53:59 51°21.882 3°6.279 14.2516 0.063341 0.379826 -2.871232
2006-12-21 08:54:05 51°21.887 3°6.312 14.2832 0.063341 0.379826 -2.871232
2006-12-21 08:54:10 51°21.891 3°6.339 14.1855 0.063341 0.379834 -2.871232
2006-12-21 08:54:14 51°21.894 3°6.361 14.2895 0.063341 0.379826 -2.871232
2006-12-21 08:54:19 51°21.897 3°6.389 14.2511 0.063341 0.379834 -2.871232
2006-12-21 08:54:25 51°21.901 3°6.422 14.3203 0.063341 0.379834 -2.871232
2006-12-21 08:54:30 51°21.905 3°6.45 14.2994 0.063341 0.379834 -2.871232
2006-12-21 08:54:34 51°21.908 3°6.471 14.2997 0.063341 0.379834 -2.871232
2006-12-21 08:54:39 51°21.911 3°6.499 14.298 0.063341 0.379834 -2.871232
2006-12-21 08:54:45 51°21.916 3°6.532 14.2809 0.063341 0.379834 -2.871232
2006-12-21 08:54:50 51°21.919 3°6.56 14.293 0.063341 0.379834 -2.871232
2006-12-21 08:54:54 51°21.922 3°6.581 14.2761 0.063341 0.379834 -2.871232
2006-12-21 08:54:59 51°21.925 3°6.609 14.2157 0.063341 0.379834 -2.871232
2006-12-21 08:55:05 51°21.93 3°6.642 14.3123 0.063341 0.379834 -2.871232
2006-12-21 08:55:10 51°21.933 3°6.67 14.3001 0.063341 0.379834 -2.871232
2006-12-21 08:55:14 51°21.936 3°6.692 14.3174 0.063341 0.379843 -2.871232
2006-12-21 08:55:19 51°21.939 3°6.72 14.2588 0.063341 0.379843 -2.871232
2006-12-21 08:55:25 51°21.944 3°6.753 14.2659 0.063341 0.379843 -2.871232
2006-12-21 08:55:30 51°21.947 3°6.781 14.3067 0.063341 0.379843 -2.871232
2006-12-21 08:55:34 51°21.95 3°6.803 14.3109 0.063341 0.379843 -2.871232
2006-12-21 08:55:39 51°21.954 3°6.83 14.331 0.063341 0.379843 -2.871232
2006-12-21 08:55:45 51°21.958 3°6.864 14.3428 0.063341 0.379843 -2.871232
2006-12-21 08:55:50 51°21.961 3°6.891 14.2665 0.063341 0.379843 -2.871232
2006-12-21 08:55:54 51°21.964 3°6.913 14.3246 0.063341 0.379843 -2.871232
2006-12-21 08:55:59 51°21.967 3°6.941 14.3089 0.063341 0.379843 -2.871232
2006-12-21 08:56:05 51°21.972 3°6.974 14.3087 0.063341 0.379851 -2.871232
2006-12-21 08:56:10 51°21.975 3°7.002 14.2765 0.063341 0.379851 -2.871232
2006-12-21 08:56:14 51°21.979 3°7.024 14.2944 0.063341 0.379851 -2.871232
2006-12-21 08:56:19 51°21.982 3°7.052 14.3142 0.063341 0.379851 -2.871232
2006-12-21 08:56:25 51°21.986 3°7.085 14.3197 0.063341 0.379851 -2.871232
2006-12-21 08:56:30 51°21.989 3°7.113 14.3065 0.063341 0.379851 -2.871232
2006-12-21 08:56:34 51°21.992 3°7.136 14.3398 0.063341 0.379851 -2.871232
2006-12-21 08:56:39 51°21.995 3°7.164 14.316 0.063341 0.379859 -2.871232
2006-12-21 08:56:45 51°21.999 3°7.198 14.3391 0.063341 0.379851 -2.871232
2006-12-21 08:56:50 51°22.002 3°7.226 14.352 0.063341 0.379859 -2.871232
2006-12-21 08:56:54 51°22.005 3°7.248 14.3438 0.063341 0.379859 -2.871232
2006-12-21 08:56:59 51°22.008 3°7.276 14.3571 0.063341 0.379859 -2.871232
2006-12-21 08:57:05 51°22.013 3°7.31 14.3249 0.063341 0.379859 -2.871232
2006-12-21 08:57:10 51°22.016 3°7.338 14.3646 0.063341 0.379859 -2.871232
2006-12-21 08:57:14 51°22.018 3°7.361 14.3654 0.063341 0.379859 -2.871232
2006-12-21 08:57:19 51°22.021 3°7.389 14.3478 0.063341 0.379859 -2.871232
2006-12-21 08:57:25 51°22.026 3°7.423 14.3931 0.063341 0.379859 -2.871232
2006-12-21 08:57:30 51°22.029 3°7.451 14.348 0.063341 0.379859 -2.871232
2006-12-21 08:57:34 51°22.032 3°7.473 14.3671 0.063341 0.379859 -2.871232
2006-12-21 08:57:39 51°22.035 3°7.502 14.3747 0.063341 0.379859 -2.871232
2006-12-21 08:57:45 51°22.039 3°7.536 14.3392 0.063341 0.379859 -2.871232
2006-12-21 08:57:50 51°22.043 3°7.564 14.3369 0.063341 0.379868 -2.871232
2006-12-21 08:57:54 51°22.045 3°7.587 14.3407 0.063341 0.379868 -2.871232
2006-12-21 08:57:59 51°22.048 3°7.615 14.3432 0.063341 0.379868 -2.871232
2006-12-21 08:58:05 51°22.053 3°7.649 14.3441 0.063341 0.379868 -2.871232
2006-12-21 08:58:10 51°22.056 3°7.678 14.336 0.063341 0.379868 -2.871232
2006-12-21 08:58:14 51°22.058 3°7.7 14.3911 0.063341 0.379868 -2.871232
2006-12-21 08:58:19 51°22.061 3°7.729 14.3904 0.063341 0.379868 -2.871232
2006-12-21 08:58:25 51°22.065 3°7.763 14.3192 0.063341 0.379868 -2.871232
2006-12-21 08:58:29 51°22.068 3°7.786 14.3623 0.063341 0.379868 -2.871232
2006-12-21 08:58:34 51°22.071 3°7.815 14.2795 0.063341 0.379868 -2.871232
2006-12-21 08:58:39 51°22.074 3°7.843 14.3711 0.063341 0.379868 -2.871232
2006-12-21 08:58:45 51°22.078 3°7.877 14.3661 0.063341 0.379876 -2.871232
2006-12-21 08:58:50 51°22.082 3°7.905 14.3976 0.063341 0.379876 -2.871232
2006-12-21 08:58:54 51°22.084 3°7.928 14.3342 0.063341 0.379876 -2.871232
2006-12-21 08:58:59 51°22.088 3°7.957 14.3572 0.063238 0.379238 -2.871232
2006-12-21 08:59:05 51°22.092 3°7.991 14.3621 0.063341 0.379876 -2.871232
2006-12-21 08:59:10 51°22.095 3°8.019 14.4156 0.063341 0.379876 -2.871232
2006-12-21 08:59:14 51°22.097 3°8.042 14.3875 0.063341 0.379876 -2.871232
2006-12-21 08:59:19 51°22.101 3°8.07 14.4233 0.063341 0.379876 -2.871232
2006-12-21 08:59:25 51°22.104 3°8.105 14.4183 0.063341 0.379876 -2.871232
2006-12-21 08:59:30 51°22.108 3°8.133 14.3232 0.063341 0.379885 -2.871232
2006-12-21 08:59:34 51°22.11 3°8.156 14.4246 0.063341 0.379876 -2.871232
2006-12-21 08:59:39 51°22.113 3°8.184 14.3541 0.063341 0.379885 -2.871232
2006-12-21 08:59:45 51°22.118 3°8.219 14.4439 0.063341 0.379885 -2.871232
2006-12-21 08:59:50 51°22.121 3°8.247 14.3958 0.063341 0.379885 -2.871232
2006-12-21 08:59:54 51°22.124 3°8.27 14.3739 0.063341 0.379885 -2.871232
2006-12-21 08:59:59 51°22.127 3°8.298 14.3809 0.063341 0.379885 -2.871232
2006-12-21 09:00:05 51°22.131 3°8.333 14.4515 0.063341 0.379885 -2.871232
2006-12-21 09:00:09 51°22.133 3°8.355 14.428 0.063341 0.379885 -2.871232
2006-12-21 09:00:14 51°22.137 3°8.384 14.4267 0.063341 0.379885 -2.871232
2006-12-21 09:00:19 51°22.14 3°8.412 14.4007 0.063341 0.379885 -2.871232
2006-12-21 09:00:25 51°22.144 3°8.447 14.4436 0.063341 0.379885 -2.871232
2006-12-21 09:00:30 51°22.148 3°8.475 14.3997 0.063341 0.379893 -2.871232
2006-12-21 09:00:34 51°22.151 3°8.498 14.4349 0.063341 0.379885 -2.871232
2006-12-21 09:00:39 51°22.154 3°8.526 14.3884 0.063341 0.379893 -2.871232
2006-12-21 09:00:45 51°22.158 3°8.561 14.4267 0.063341 0.379893 -2.871232
2006-12-21 09:00:50 51°22.162 3°8.589 14.4213 0.063341 0.379893 -2.871232
2006-12-21 09:00:54 51°22.165 3°8.612 14.4124 0.063341 0.379893 -2.871232